ECMWFFLT2_500_spd_000.txt.gz
Wind_Speed
22 21 19 18 19 22 23 23 28 29 27 28 29 30 33 33 29 27 26 23 20 19 20 20 19 18 17 17 16 14 13 12 12 12 13 13 14 13 12 11 10 10 13 15 16 17 17 16 16 15 14 13 13 12 12 13 13 14 14 14 14 14
21 21 19 18 19 17 16 18 21 24 26 26 28 29 31 34 32 30 29 26 23 20 21 22 21 20 18 19 18 16 15 14 13 13 13 13 14 15 14 13 12 11 13 15 16 18 18 17 17 16 15 14 13 14 14 14 14 14 14 15 15 15
20 20 19 19 20 17 15 17 18 20 23 24 25 28 30 33 34 32 30 28 25 23 22 24 23 21 20 20 20 18 17 15 14 13 13 14 15 16 16 15 13 12 13 16 17 18 18 18 17 17 16 15 14 14 14 14 14 13 13 14 15 15
22 20 20 20 21 20 18 18 19 19 20 24 27 29 30 32 34 33 31 29 27 25 24 25 24 23 22 21 20 19 19 17 15 14 15 14 15 17 18 16 15 14 14 16 18 19 19 18 18 17 17 16 15 15 15 14 14 13 13 13 14 15
24 22 21 21 22 21 19 19 20 20 20 24 28 31 32 32 33 34 33 31 29 27 27 27 26 25 24 23 21 20 19 18 17 17 17 16 15 17 19 18 17 16 15 16 19 19 19 19 19 19 18 17 17 16 15 14 13 13 13 13 14 14
26 24 23 23 23 22 20 19 22 22 20 22 25 28 30 32 32 32 33 33 31 30 29 29 28 26 26 25 24 22 20 19 19 18 18 17 16 17 19 20 19 18 17 17 19 20 21 20 21 20 19 18 18 18 16 15 14 13 13 13 14 14
26 25 24 24 24 24 22 21 22 22 21 22 23 24 27 30 32 33 33 34 33 33 32 31 29 28 27 27 26 25 24 22 21 20 19 18 18 17 19 21 20 20 20 19 19 21 22 22 22 22 21 20 19 19 17 16 15 14 14 14 13 13
25 25 25 24 25 25 24 24 25 23 22 22 21 23 25 27 30 33 35 36 35 35 36 35 32 30 29 29 29 28 27 24 23 22 21 20 20 20 20 21 22 22 22 21 20 21 22 23 23 23 23 22 21 20 19 18 17 17 16 15 15 14
25 25 25 25 25 26 25 26 27 26 25 24 22 23 25 25 27 30 33 36 37 36 37 38 36 34 32 32 32 31 29 27 25 25 24 23 22 22 22 22 23 23 23 22 21 21 22 23 24 24 24 23 22 21 20 19 19 18 17 17 16 15
25 25 25 25 25 26 26 27 29 28 27 27 26 26 27 26 26 28 30 33 37 38 37 39 40 38 35 35 34 33 31 29 28 27 27 25 24 24 24 24 25 25 24 23 22 22 22 23 24 25 25 24 24 23 22 21 20 19 18 18 17 16
27 27 26 27 27 27 27 27 29 30 28 28 30 30 29 29 29 29 28 30 34 37 38 39 40 41 39 38 36 35 33 32 31 30 29 28 26 26 25 25 26 27 27 25 24 23 23 23 24 25 26 26 25 24 23 22 21 20 20 19 18 17
29 28 28 28 28 28 29 29 30 31 31 29 31 32 31 31 31 30 28 27 29 33 36 39 40 42 42 41 39 37 36 34 34 33 32 30 28 27 26 26 26 28 29 28 26 25 24 24 24 26 27 27 26 25 25 24 23 22 21 20 19 18
29 30 29 29 29 30 30 31 31 33 33 31 32 33 32 32 32 31 30 28 28 29 31 36 41 43 43 44 43 40 38 37 36 36 34 32 31 29 28 27 26 27 29 29 29 28 26 25 25 26 27 28 28 27 26 25 25 24 23 22 21 20
30 30 30 30 30 31 31 32 33 34 34 33 33 34 33 33 32 33 33 30 29 29 28 32 38 44 46 46 45 42 40 39 39 38 37 35 33 31 30 29 28 28 28 29 31 30 29 27 27 27 28 29 29 28 28 27 27 26 25 24 23 22
31 31 31 31 31 31 32 33 33 34 35 35 34 35 35 34 33 34 35 33 32 30 29 30 34 42 47 46 45 43 42 42 41 40 39 37 35 34 32 31 30 29 29 29 30 32 31 30 29 28 28 29 30 30 29 29 29 28 27 25 24 23
32 32 32 33 32 32 33 33 34 35 36 36 35 35 36 35 34 34 35 34 33 32 31 31 31 36 44 47 45 45 44 44 44 42 41 40 38 36 35 34 33 31 30 30 30 31 32 32 31 30 29 29 30 30 31 31 31 30 28 27 26 25
34 33 33 34 34 34 34 34 35 35 36 36 36 36 36 37 35 34 35 35 34 33 32 32 30 32 39 46 47 46 47 47 47 45 43 42 41 39 37 36 35 34 32 31 30 31 32 33 33 32 31 30 30 31 32 32 32 31 29 28 27 26
36 35 35 35 35 35 35 36 36 36 37 37 37 37 37 38 37 36 36 37 35 34 34 33 31 31 35 42 47 47 48 49 49 47 45 44 43 42 40 38 37 36 35 33 32 31 32 33 34 34 33 32 31 31 32 32 32 31 30 29 29 28
36 37 37 36 36 36 36 37 37 37 38 38 38 39 39 39 39 37 37 38 37 36 36 36 34 32 32 38 45 48 49 50 51 49 47 46 45 44 42 40 39 39 38 36 34 33 33 33 34 35 35 34 33 32 32 32 32 32 31 30 30 30
37 38 38 38 38 38 37 37 37 38 38 39 40 40 41 40 40 40 39 39 40 38 38 37 36 34 33 36 41 46 46 48 52 52 49 48 46 46 45 43 42 41 40 39 37 35 34 34 34 35 36 35 34 33 32 32 32 32 32 31 31 30
39 39 39 39 40 40 40 39 38 38 38 39 40 41 42 42 42 42 41 41 41 41 39 39 38 36 36 36 39 44 42 41 49 51 50 51 50 49 49 47 45 44 42 41 39 38 37 36 35 35 36 36 35 35 34 33 33 33 33 32 32 31
40 40 40 40 41 41 41 41 40 39 39 39 40 42 43 44 45 45 44 43 43 43 42 41 40 39 39 38 41 47 42 37 43 47 46 50 54 52 50 49 48 46 44 43 42 41 40 38 37 36 36 37 37 36 35 34 34 34 33 33 33 33
40 41 42 42 42 42 42 42 41 41 41 41 41 42 43 45 46 46 47 46 46 45 45 44 43 42 42 41 42 46 43 37 41 46 45 45 51 54 53 51 49 48 46 45 44 44 42 40 39 38 38 38 38 38 37 36 35 35 35 34 34 34
40 41 42 43 43 44 43 43 43 43 43 43 43 43 43 45 46 47 48 49 48 48 47 47 46 45 44 43 43 45 45 42 43 48 49 46 47 52 54 53 51 49 48 46 45 45 45 44 42 41 39 38 38 38 37 37 37 37 36 35 35 35
39 40 42 43 44 44 44 44 44 44 44 44 44 45 45 45 47 48 48 50 50 50 50 49 49 48 47 46 46 46 47 46 46 47 48 49 49 50 52 55 54 52 50 48 47 47 47 47 45 44 42 40 39 39 38 39 41 40 37 36 36 35
38 38 40 42 43 44 45 45 45 45 45 45 45 45 46 46 47 48 48 49 50 52 52 52 52 51 50 49 49 49 48 48 48 48 47 49 51 51 51 54 56 54 52 51 51 50 49 48 48 46 44 43 41 41 41 42 42 40 38 38 37 36
38 38 38 40 42 43 44 45 45 45 45 46 45 46 47 47 48 48 48 49 50 52 53 54 54 54 53 53 52 51 51 50 50 50 50 49 50 51 50 50 55 56 55 54 53 52 51 49 49 48 47 46 45 43 43 43 42 41 40 39 38 38
39 38 38 39 40 41 42 43 44 45 45 45 45 45 47 47 47 48 49 50 50 51 53 55 56 57 56 56 55 55 54 54 53 52 53 51 50 50 47 48 55 56 56 57 56 54 53 53 51 49 49 49 48 46 46 45 43 43 42 40 39 38
40 39 39 39 40 40 41 41 42 43 44 45 45 44 46 47 47 48 48 49 51 52 52 54 55 57 59 59 58 58 57 57 57 56 55 54 52 52 49 50 55 55 56 58 58 56 55 54 53 51 51 52 51 50 48 47 45 44 42 41 40 39
40 40 39 40 41 41 42 42 42 43 43 44 44 44 45 46 47 48 49 49 51 52 53 54 54 56 58 60 61 61 61 60 59 58 58 57 55 54 53 53 55 56 57 58 58 58 58 55 55 54 54 54 54 53 50 48 46 44 43 42 41 40
40 40 40 40 41 42 43 43 42 43 43 43 44 44 44 46 47 48 49 50 51 52 53 54 55 55 56 58 61 63 64 63 62 61 60 59 58 56 56 56 56 57 59 57 56 58 59 58 57 57 56 56 55 54 52 50 48 46 45 43 42 42
39 40 39 41 42 43 44 44 43 44 44 44 44 44 45 45 47 48 49 50 51 53 53 54 55 55 55 56 58 62 65 65 64 64 62 61 60 59 58 58 57 57 57 56 56 56 58 60 60 59 57 56 56 55 54 52 51 49 47 45 44 43
37 38 38 39 41 43 44 44 44 44 45 45 45 45 45 45 47 48 49 50 51 53 54 54 54 55 55 57 57 59 62 65 66 66 65 63 62 61 60 59 58 58 56 56 56 56 57 58 60 61 60 58 58 57 55 54 54 52 49 47 46 44
35 36 36 38 39 41 42 43 43 43 44 44 44 44 44 44 45 47 48 49 50 52 53 54 54 54 54 56 58 58 59 62 65 67 67 65 64 63 63 61 60 59 57 56 56 56 56 57 58 59 62 63 61 59 57 56 55 54 52 50 48 46
35 36 36 37 38 38 40 41 41 42 42 42 43 43 43 44 45 47 48 50 50 51 52 53 53 53 53 54 56 58 58 59 61 65 67 67 66 64 64 64 62 60 58 57 56 54 55 58 59 57 60 63 63 61 60 58 56 55 54 52 50 49
36 36 37 37 38 39 40 41 42 43 43 43 43 43 44 44 45 47 49 51 51 51 52 52 53 54 53 53 55 56 57 58 59 61 64 66 67 66 66 65 64 63 60 59 57 56 56 58 60 60 59 61 64 65 63 60 58 57 55 54 52 51
36 37 37 37 37 39 40 42 43 44 44 44 44 44 44 44 45 47 49 51 52 53 53 53 54 55 54 54 55 56 56 57 58 59 60 63 65 67 68 67 66 65 63 60 58 58 58 58 61 63 61 59 62 64 65 64 61 58 57 56 55 53

ECMWFFLT2_500_spd_003.txt.gz
Wind_Speed
20 19 19 19 19 19 20 21 23 26 27 28 29 27 27 28 28 25 22 21 20 18 19 20 21 20 20 21 17 15 17 17 17 18 21 21 20 20 20 20 20 20 21 21 21 20 19 17 15 14 13 14 15 16 15 16 17 18 19 20 20 19
20 19 18 17 18 18 19 19 21 24 24 27 30 29 26 27 27 26 23 22 22 21 19 20 22 21 21 22 19 16 17 18 19 20 22 23 21 21 20 20 20 20 21 21 21 21 20 18 17 16 15 15 15 17 17 16 17 18 18 19 19 19
21 19 18 17 18 18 18 19 20 20 19 21 26 28 25 24 26 26 26 24 24 23 21 21 23 23 22 24 21 16 17 18 20 21 22 24 23 22 21 21 21 21 21 21 22 22 21 20 19 18 17 16 17 17 17 17 17 17 18 18 18 19
22 21 19 18 19 19 19 19 18 18 17 15 18 23 24 23 24 26 27 27 27 27 24 22 23 25 24 24 23 19 17 18 20 21 22 24 25 24 23 22 21 22 22 22 22 23 23 21 20 19 19 18 18 18 18 17 17 17 17 17 18 18
22 21 20 20 21 20 19 19 18 17 17 15 14 17 21 24 25 27 28 29 29 29 28 25 24 25 25 25 25 22 19 18 19 21 22 24 26 26 25 24 23 22 23 23 23 23 23 23 22 20 20 20 20 19 18 17 17 17 16 17 17 17
23 22 21 21 22 22 20 20 19 18 17 16 15 16 19 23 26 29 28 28 30 30 30 28 26 25 26 26 26 24 21 20 20 21 22 23 26 27 26 25 24 23 24 24 24 24 24 24 24 22 22 21 21 20 19 18 17 17 17 17 17 17
23 22 21 21 22 22 21 21 21 19 18 17 18 19 19 20 24 29 30 28 29 31 31 30 28 27 27 28 27 25 24 22 21 22 22 23 24 27 28 27 26 25 24 25 25 24 24 24 25 24 23 22 21 20 19 18 18 18 17 17 16 16
24 23 22 22 22 23 23 22 22 21 20 19 19 19 19 19 21 26 30 29 28 30 31 32 31 29 29 29 28 27 25 24 22 22 22 22 23 26 29 30 28 27 26 26 26 25 25 25 25 25 25 24 23 22 20 19 19 18 18 17 16 16
26 25 24 23 23 24 24 23 23 23 23 22 20 19 19 19 20 22 28 30 29 30 31 32 33 33 32 31 31 29 27 26 24 23 23 23 24 25 28 31 31 29 28 27 27 26 26 26 26 26 26 25 24 23 22 21 20 20 19 18 17 16
29 27 26 25 24 24 25 25 25 25 25 24 22 22 21 20 20 21 24 28 30 31 32 33 34 34 35 34 33 32 30 29 27 26 24 24 24 25 27 30 32 31 29 28 28 27 27 27 27 27 27 26 25 24 23 23 23 22 21 20 19 18
31 30 28 27 26 26 26 26 26 26 27 25 25 24 23 21 21 21 22 24 27 30 33 35 35 35 36 37 36 34 33 31 30 29 28 26 25 26 26 28 31 32 31 29 29 28 28 29 29 29 29 28 27 26 25 25 25 25 24 23 21 20
33 32 31 30 28 27 27 27 28 28 28 27 27 26 25 24 23 23 23 23 24 26 29 32 36 36 36 38 39 37 35 34 33 32 31 30 28 27 27 27 29 32 32 31 30 29 29 30 30 30 30 29 29 28 27 27 27 27 26 25 24 23
33 34 33 32 31 30 29 29 29 30 30 29 29 29 28 28 27 26 25 25 25 26 27 28 33 37 37 38 40 41 39 37 36 34 33 33 31 29 29 28 27 30 33 32 31 31 31 30 31 32 31 31 30 30 29 29 28 28 28 27 26 25
33 34 34 33 32 32 31 30 31 32 32 32 32 31 31 31 30 30 29 28 28 29 29 27 28 33 37 39 41 43 43 42 40 38 36 35 34 32 31 30 28 28 31 33 33 32 32 32 32 32 32 32 32 31 31 30 30 30 29 29 28 26
32 33 34 34 34 33 33 32 32 33 34 34 34 34 33 32 32 32 32 32 31 30 30 28 26 28 33 37 41 43 44 45 45 42 39 37 36 35 34 33 30 29 29 31 34 34 34 34 33 33 33 33 33 33 33 32 32 31 31 30 29 28
30 31 32 33 33 33 34 33 33 34 35 35 36 36 35 34 34 34 34 34 32 31 31 29 28 28 29 32 37 42 45 47 48 46 42 39 38 38 37 36 34 31 30 30 33 35 36 36 35 34 34 34 33 34 34 34 34 33 33 32 30 29
29 30 30 31 31 32 32 33 34 35 35 36 37 37 37 36 36 35 35 35 34 33 33 32 31 32 31 31 33 38 43 47 50 48 46 43 40 40 39 38 37 35 32 31 32 34 37 37 37 36 35 35 34 34 35 35 36 35 34 33 32 31
29 29 29 29 30 30 31 32 33 34 35 36 37 38 39 38 37 37 37 37 36 36 37 36 33 33 34 33 33 34 38 44 50 50 48 46 44 41 41 41 40 39 37 34 33 33 36 37 38 38 37 36 35 35 35 36 36 36 35 34 33 33
28 28 29 29 29 30 31 31 32 33 34 35 37 38 40 39 38 38 38 38 38 38 39 38 36 35 36 35 35 35 35 38 45 51 50 48 46 44 42 42 42 42 41 39 36 34 34 36 38 39 39 38 37 36 36 35 35 36 36 36 35 35
28 27 28 28 29 30 30 31 32 33 34 35 36 38 39 40 40 39 39 38 39 39 40 40 39 39 38 36 36 37 35 34 38 47 51 48 47 47 44 43 44 45 44 42 40 37 36 36 37 39 40 40 39 38 36 36 35 35 36 36 36 36
30 29 29 29 29 29 30 31 32 33 34 35 36 37 38 40 41 41 40 40 39 40 41 41 41 41 40 39 39 39 37 34 34 40 48 47 46 48 47 46 45 46 46 45 43 41 39 37 37 37 39 40 40 40 38 37 36 35 36 36 36 36
31 32 31 31 30 30 30 30 32 33 34 35 36 37 38 39 41 41 41 41 41 41 42 43 43 43 43 42 41 40 38 36 34 36 43 47 45 46 48 49 49 47 46 47 46 45 43 40 38 37 39 40 41 41 40 39 38 37 37 36 36 36
32 33 33 33 33 33 32 31 32 33 34 35 36 37 39 40 41 41 42 42 43 43 43 44 44 44 44 44 43 42 40 38 37 35 40 47 47 47 50 52 52 50 48 49 48 48 46 43 41 40 39 39 39 41 41 41 40 39 38 38 37 36
33 33 33 34 35 35 35 34 34 34 35 36 37 38 39 40 41 42 42 42 43 44 45 45 46 46 46 46 44 44 43 41 41 40 43 49 46 45 52 53 53 52 51 51 50 49 49 47 46 43 41 39 39 40 41 41 41 42 41 39 38 38
34 34 34 34 35 36 37 37 37 37 37 38 39 40 40 41 41 42 43 43 43 44 45 46 48 48 48 48 46 46 45 44 44 43 46 49 44 39 44 48 52 56 55 53 52 51 51 51 49 47 44 41 40 39 40 42 43 44 43 41 40 39
35 35 35 35 35 36 37 38 39 39 39 39 40 41 42 42 42 43 43 44 44 44 45 46 48 49 50 50 49 48 48 47 47 46 46 48 46 41 41 43 46 52 55 56 55 54 54 52 51 50 47 44 42 41 41 42 44 44 44 43 42 41
35 36 36 36 35 35 37 38 40 40 41 41 41 42 43 43 44 44 44 45 45 45 46 46 47 49 50 51 52 51 50 50 49 49 48 48 47 44 44 45 42 41 47 55 58 56 54 54 54 52 50 48 46 44 44 43 43 44 44 44 44 43
36 37 36 36 36 36 37 38 39 40 41 42 42 43 43 43 45 45 46 46 46 46 47 47 47 48 50 51 53 53 53 52 52 51 51 50 49 46 45 45 42 39 41 49 56 58 55 55 56 54 52 51 50 48 47 46 44 44 44 43 44 44
38 38 38 38 37 38 38 39 39 40 41 41 42 43 43 44 45 45 46 47 48 48 47 47 48 48 49 50 52 54 55 55 54 54 54 53 52 50 47 46 43 42 42 45 50 56 57 54 54 56 57 55 53 52 50 49 46 44 43 43 44 45
40 40 40 40 40 40 40 40 40 40 41 41 42 42 43 44 44 45 45 46 47 48 48 48 48 49 49 49 50 52 55 57 57 56 57 56 54 53 51 51 49 47 47 48 48 52 58 57 52 53 58 59 56 55 53 51 48 46 44 43 43 44
41 41 41 41 41 41 42 41 42 42 42 42 43 43 43 44 44 44 44 45 46 47 48 49 49 49 50 50 50 51 53 56 58 59 58 58 58 56 54 53 52 51 51 51 50 50 54 58 55 50 54 58 58 56 55 53 52 50 48 45 44 45
42 42 41 41 41 42 42 42 42 43 43 43 44 44 44 44 45 44 44 44 45 45 46 48 49 49 50 51 51 50 51 53 56 59 60 60 60 59 58 57 54 54 55 54 54 52 52 56 59 55 52 53 56 57 56 55 55 54 51 49 47 46
42 42 41 40 40 41 42 42 42 43 43 44 44 45 45 46 46 45 45 45 45 45 45 47 48 49 50 52 52 51 51 52 53 56 60 62 62 62 61 61 59 58 58 58 56 56 55 54 56 58 55 52 54 56 56 57 58 56 54 52 50 48
42 41 40 39 40 40 40 41 41 42 43 44 45 45 46 46 47 47 46 46 46 46 46 47 48 49 50 52 53 53 52 52 52 54 57 60 63 64 64 64 63 62 61 61 59 58 58 57 54 54 56 55 56 56 56 58 60 60 58 55 52 51
40 40 39 39 39 39 39 40 40 40 41 43 44 45 45 46 47 48 48 48 48 48 48 48 48 49 50 51 53 54 54 53 53 53 55 57 60 64 66 67 66 66 64 63 62 60 59 60 57 53 53 55 57 57 57 59 60 61 60 58 55 53
39 39 39 39 39 39 39 39 39 39 39 41 42 43 44 45 46 47 48 48 49 49 49 48 48 49 50 51 52 53 54 54 55 55 55 55 57 60 64 68 69 69 68 66 65 63 61 60 60 57 54 53 54 54 56 60 63 63 62 60 58 57
39 39 39 38 39 39 39 40 39 39 39 39 40 42 43 44 45 47 48 48 48 49 49 48 48 48 49 51 52 53 54 54 55 56 55 55 56 57 60 64 69 71 71 69 67 65 64 62 62 60 56 53 52 52 53 57 62 66 66 63 60 58

ECMWFFLT2_500_spd_006.txt.gz
Wind_Speed
22 22 23 23 23 21 20 20 20 19 20 19 19 21 22 22 23 25 25 25 23 22 24 22 18 17 17 18 18 16 14 15 17 20 23 23 25 27 27 26 26 25 24 23 22 21 21 21 19 18 18 20 20 20 21 22 22 22 23 23 23 23
22 22 22 22 21 20 19 20 19 19 19 18 19 21 22 23 25 26 26 26 24 22 24 23 20 19 19 19 20 18 16 15 17 20 24 24 25 28 28 28 27 27 26 24 23 22 21 21 20 19 18 19 20 20 20 21 22 22 23 23 23 22
23 23 22 21 20 19 18 19 19 19 18 18 19 19 21 24 27 28 27 27 26 24 23 23 22 22 21 21 20 20 17 15 17 19 24 25 26 28 29 29 28 28 27 26 25 23 22 22 21 20 19 19 20 20 20 21 22 23 23 23 22 22
23 23 22 21 21 19 19 20 20 19 19 18 18 18 20 24 28 30 28 28 27 25 25 24 23 23 23 22 21 21 19 17 16 18 22 25 26 28 30 29 29 28 28 27 26 25 24 23 22 21 20 20 20 20 21 21 22 23 23 23 22 22
23 23 22 22 21 21 21 21 21 20 19 18 17 18 18 20 27 30 28 29 28 27 26 25 24 24 24 23 23 22 20 18 17 17 20 25 26 28 30 30 29 29 29 28 27 26 25 24 23 22 21 21 20 21 21 22 22 22 22 23 22 22
23 22 22 22 22 22 23 23 22 21 20 19 18 17 17 16 23 29 28 29 29 28 27 26 25 25 24 24 24 23 21 20 19 18 19 23 27 27 29 31 30 30 30 29 29 28 27 26 25 24 23 22 21 21 22 22 22 23 22 22 22 22
24 23 23 23 23 23 24 24 23 23 22 20 19 17 16 14 19 25 27 28 29 30 29 28 27 27 26 25 25 25 23 22 20 19 19 21 26 28 29 30 31 31 30 30 30 29 29 28 27 25 24 23 23 22 22 22 22 23 23 22 22 21
25 25 25 24 24 24 24 24 24 24 23 22 21 18 16 15 17 21 25 27 29 30 30 31 30 30 29 27 26 26 25 24 22 21 20 20 23 28 29 30 32 32 32 31 31 31 30 29 28 27 26 25 24 24 23 23 22 22 22 23 22 22
27 27 27 26 25 25 25 25 25 25 24 24 23 19 18 18 17 19 22 25 28 30 31 33 33 33 32 30 28 28 27 26 25 23 22 21 21 25 29 30 32 33 33 32 32 32 32 31 30 29 28 27 26 26 25 24 23 23 23 23 23 22
29 29 29 28 27 26 26 26 25 25 25 24 23 22 21 20 19 20 21 23 28 31 32 33 33 35 35 33 31 30 29 29 28 26 24 23 21 22 26 30 32 33 33 34 33 32 33 33 32 31 30 29 28 27 26 26 25 24 24 24 24 23
30 30 30 30 29 28 27 27 26 26 26 25 24 23 23 22 21 21 22 23 26 30 33 33 32 34 36 34 33 32 31 31 31 29 27 26 24 22 23 27 30 32 33 34 34 34 34 34 33 33 32 31 30 29 28 27 27 26 25 25 25 24
32 32 31 31 31 29 29 29 28 28 27 26 25 25 24 24 24 23 23 23 24 27 31 33 31 32 36 37 36 36 34 33 32 32 31 29 27 25 23 24 27 30 32 33 34 35 35 35 35 35 34 33 32 30 29 29 29 28 27 26 25 25
34 34 33 33 32 31 30 30 30 30 29 28 27 26 26 27 26 26 26 26 25 25 27 30 30 31 35 38 39 39 38 36 34 34 33 32 30 28 26 25 25 27 30 33 34 35 36 37 37 36 36 35 33 33 31 31 30 30 29 28 27 27
35 35 34 34 34 33 32 31 31 32 31 30 29 28 28 28 28 28 28 28 26 26 26 28 30 32 35 38 41 42 41 39 38 36 35 35 33 31 29 27 26 26 28 31 34 35 36 37 38 38 37 36 35 34 33 32 32 32 31 30 30 29
36 35 35 34 34 34 34 33 32 32 33 32 31 31 30 30 31 30 30 30 28 28 28 29 30 32 33 34 38 42 43 42 42 40 38 38 36 34 32 31 30 28 27 29 32 35 36 37 38 38 38 38 37 36 35 35 34 33 33 32 32 31
35 35 34 34 34 34 34 34 33 33 33 34 34 33 32 32 32 33 32 32 32 32 31 31 31 32 32 31 33 37 42 43 44 44 42 40 39 38 36 34 33 31 30 29 30 34 36 37 38 38 39 39 39 38 38 37 36 35 35 34 33 33
32 32 32 32 32 33 33 33 33 33 33 34 35 35 34 34 33 34 34 34 35 35 35 34 34 34 33 33 32 32 37 43 46 47 46 44 42 41 39 37 35 34 33 32 31 32 35 37 38 38 39 40 40 40 40 38 38 37 36 35 35 34
29 30 30 30 30 31 31 31 31 31 32 33 34 35 35 35 34 35 36 36 37 37 37 36 36 36 35 34 34 32 33 39 46 48 48 47 45 44 42 40 38 38 37 36 35 34 34 36 39 39 39 40 41 41 41 40 39 39 38 37 36 35
28 29 29 30 30 30 30 31 31 30 31 31 32 34 35 36 36 35 36 37 37 38 38 38 37 37 36 35 34 34 33 35 41 46 49 49 48 46 45 43 42 41 40 40 39 37 35 35 38 40 40 41 41 41 41 41 41 40 40 39 38 36
27 27 28 29 29 29 30 30 31 31 31 31 32 33 34 36 36 36 36 37 38 39 39 39 38 37 37 36 35 35 35 35 36 40 46 50 50 49 47 46 45 45 44 43 42 40 39 37 38 39 41 41 41 41 41 41 41 41 41 40 39 38
27 27 27 27 28 29 29 29 30 31 31 31 32 33 34 35 36 36 37 37 38 39 40 40 40 39 39 38 38 38 37 37 38 38 40 43 48 52 51 50 49 48 47 45 44 44 43 41 40 39 40 42 43 43 42 42 41 41 41 41 40 40
27 28 27 27 27 28 29 29 30 31 31 31 32 33 33 34 35 36 37 38 38 39 41 41 41 41 41 41 41 41 40 40 41 41 39 39 42 46 49 51 53 51 50 48 46 46 46 45 43 41 41 42 43 44 44 43 42 42 41 41 41 41
28 29 29 28 27 27 28 29 30 31 31 32 32 32 33 34 35 36 36 37 38 39 40 42 42 42 43 43 43 42 42 42 42 42 41 40 40 41 42 46 54 56 54 51 49 49 48 46 46 45 43 42 42 43 44 44 43 42 42 41 41 42
30 30 30 30 30 30 30 30 30 31 31 32 32 32 33 34 35 36 36 37 37 38 40 41 43 43 44 45 45 45 44 44 44 44 42 41 42 42 41 42 49 57 57 53 52 52 49 48 49 49 46 43 43 43 43 43 44 44 44 44 43 42
31 31 31 31 31 32 32 31 31 31 32 32 33 33 33 34 35 36 37 37 38 38 39 40 42 44 45 46 47 47 47 46 46 46 45 44 43 44 45 42 44 51 56 55 53 54 52 51 51 51 49 48 46 44 42 43 44 45 46 46 45 44
31 31 31 31 31 32 33 33 33 33 33 34 34 34 34 34 35 36 37 38 39 39 39 40 41 43 44 46 47 48 49 49 49 48 48 47 47 46 46 46 44 47 53 55 53 54 55 54 54 53 52 51 49 45 44 45 45 45 47 47 46 46
32 31 31 31 31 32 33 34 35 35 35 35 36 35 35 35 35 36 37 39 40 41 41 41 41 42 44 45 46 48 50 51 51 51 50 49 49 49 48 48 47 46 51 55 52 53 55 55 56 56 53 52 52 49 47 47 46 45 46 46 47 48
32 32 32 32 32 32 33 35 35 35 35 36 36 37 37 37 37 36 37 38 40 41 42 43 42 42 43 45 46 47 49 51 52 52 52 52 51 51 50 50 50 49 51 55 55 53 53 55 57 57 56 54 53 53 52 51 48 47 47 45 46 48
34 34 33 33 33 34 34 35 36 36 36 36 37 37 37 38 38 38 38 38 39 41 42 44 44 44 44 45 46 47 48 50 52 53 54 54 54 53 53 53 53 52 52 54 57 54 52 56 59 58 60 59 56 55 55 54 51 49 47 46 46 46
35 35 35 35 35 35 35 36 37 37 38 38 38 38 38 38 39 40 40 40 40 41 42 43 45 46 46 46 47 47 48 49 51 53 54 55 56 56 55 55 54 55 55 55 56 54 50 53 59 60 61 61 59 57 57 56 54 51 48 47 47 46
37 37 37 37 37 37 37 38 38 39 39 39 40 40 40 40 40 40 41 42 42 42 43 43 44 46 47 47 48 48 49 49 50 52 54 55 57 57 57 58 57 57 57 56 55 54 50 49 54 59 60 60 60 59 58 58 56 54 53 51 50 48
38 38 38 38 39 39 39 40 40 41 41 41 41 42 42 43 42 42 42 43 44 44 44 44 45 46 47 48 48 49 50 50 50 51 53 55 56 58 58 59 60 60 59 58 56 55 53 49 51 55 56 57 61 62 62 61 59 57 57 55 53 52
40 40 40 40 41 41 41 41 42 42 43 43 43 43 43 44 44 44 44 44 45 45 46 46 46 46 47 48 48 49 49 51 51 51 52 54 55 57 58 60 62 62 61 60 59 57 55 52 52 52 51 54 60 62 61 62 62 61 59 58 57 56
42 42 42 42 42 42 42 43 43 43 43 43 44 44 44 45 45 45 45 46 46 46 47 47 47 47 47 48 48 49 49 50 51 51 52 53 54 55 57 59 61 63 63 62 61 59 57 55 52 50 48 50 56 59 59 58 59 61 62 62 60 58
43 43 43 44 44 44 44 44 44 43 43 43 44 44 44 44 45 46 46 46 47 47 48 48 48 48 48 48 49 49 49 49 50 51 51 52 53 54 55 57 59 62 64 64 64 61 59 58 55 51 48 48 51 54 56 57 57 58 60 62 63 61
44 44 44 44 44 44 45 45 44 44 43 43 43 44 44 44 44 45 46 46 47 48 48 48 48 49 49 49 49 49 50 50 50 50 51 52 53 54 54 55 57 59 62 65 66 64 63 61 58 56 54 53 53 52 53 56 57 58 57 57 61 64
45 44 45 45 45 45 45 45 45 44 43 43 43 44 44 44 44 44 44 45 46 47 48 49 49 49 49 49 49 50 50 50 51 51 51 51 52 53 54 55 55 56 59 63 65 66 66 64 61 60 59 58 58 56 54 53 53 56 56 53 54 60

ECMWFFLT2_500_spd_009.txt.gz
Wind_Speed
22 21 22 21 21 21 19 20 21 22 22 21 21 21 20 19 18 20 22 24 25 26 24 22 22 21 18 17 17 16 16 15 15 18 21 23 25 28 28 27 26 25 24 23 22 20 20 20 20 20 21 22 24 25 26 27 27 26 25 24 24 24
20 20 20 20 22 22 20 20 21 21 21 21 22 21 20 20 20 21 22 24 26 26 25 23 23 24 23 20 17 16 17 16 15 17 20 23 25 28 29 28 27 26 25 25 24 22 21 20 20 21 21 21 22 24 25 26 27 26 26 25 25 25
20 20 20 20 22 23 21 21 21 20 21 22 21 21 21 21 21 22 22 24 26 26 26 25 25 28 28 24 19 18 18 17 17 16 19 23 25 28 30 29 29 28 27 26 25 24 23 22 21 21 21 21 22 23 24 25 26 26 26 25 26 26
21 21 21 21 22 24 23 22 22 21 21 21 20 21 22 21 21 21 22 24 27 27 27 27 27 28 29 25 21 19 20 20 18 16 17 22 25 27 30 30 30 29 28 27 26 25 24 23 22 22 21 21 22 22 24 25 26 26 25 25 26 26
21 21 22 22 23 24 24 24 23 23 22 21 20 21 21 20 20 21 21 24 28 29 28 29 28 28 29 27 23 21 21 21 19 17 17 21 25 27 30 31 30 30 29 28 28 27 25 24 23 23 22 21 21 22 23 25 25 25 25 25 26 25
22 22 23 23 23 24 26 25 24 24 22 21 20 20 21 20 20 20 20 24 30 32 31 30 28 28 31 28 26 23 22 22 21 20 18 19 24 27 29 31 31 31 31 30 29 28 26 25 25 24 23 22 22 21 22 23 24 25 25 25 26 25
24 24 24 24 24 24 26 26 25 25 23 22 21 20 20 19 18 18 19 22 30 34 31 31 29 29 31 28 26 25 23 23 23 22 20 19 22 26 28 31 32 32 31 31 30 29 28 27 26 25 24 23 22 21 21 22 23 24 25 25 26 25
25 25 25 25 25 25 26 27 26 26 24 23 22 20 19 17 17 17 18 19 28 33 31 33 32 32 32 28 26 25 23 24 25 24 22 19 21 24 28 30 33 33 32 32 31 30 29 28 27 27 25 24 23 22 22 22 22 23 24 25 25 25
26 26 26 26 26 26 26 27 27 27 26 24 21 20 19 18 18 18 17 17 25 29 29 32 32 33 33 29 27 26 25 26 26 25 23 21 21 23 26 29 32 34 33 33 32 31 30 30 29 28 27 26 25 24 23 23 23 23 24 24 24 25
29 28 28 28 27 27 27 28 28 28 27 26 23 21 21 20 20 19 17 17 21 26 28 30 30 30 32 31 31 29 27 29 28 26 25 23 22 21 24 28 30 32 34 34 34 33 32 31 30 30 28 28 27 26 25 24 24 24 24 24 24 24
31 30 30 29 29 28 28 28 29 29 28 28 26 24 22 21 21 20 19 18 19 24 28 28 29 31 32 32 33 31 30 31 29 26 26 25 23 22 22 25 28 31 34 35 35 35 34 33 32 31 31 30 29 29 28 27 26 26 25 25 24 25
32 32 32 31 31 30 29 29 30 30 29 29 28 26 24 23 22 21 21 20 20 23 24 25 27 31 33 35 35 33 31 32 31 27 27 27 25 24 22 23 26 29 32 35 36 36 36 35 34 33 33 32 32 31 30 29 28 27 27 26 25 25
33 33 33 33 32 31 31 30 30 30 30 30 29 27 26 25 24 23 23 23 23 22 21 24 26 28 33 36 36 35 32 31 33 32 30 29 28 26 24 23 24 27 30 33 36 37 37 37 36 35 35 34 34 33 33 31 30 29 28 27 27 26
33 33 34 34 33 32 31 30 30 30 31 30 30 29 27 26 26 25 24 25 25 24 23 25 26 27 32 35 35 36 35 31 33 35 33 32 31 29 27 25 25 25 28 30 33 36 37 38 37 37 37 36 36 35 35 34 32 31 30 29 29 28
34 34 34 34 33 32 32 31 30 30 31 31 30 30 29 28 27 26 26 26 27 27 27 27 26 27 31 35 36 37 37 32 32 35 35 34 34 31 30 29 27 27 27 29 31 33 35 37 38 38 38 38 38 37 37 36 34 32 31 31 30 30
35 34 34 34 33 32 32 31 31 30 30 31 31 30 30 30 29 29 28 27 28 29 30 29 28 29 29 33 36 39 39 34 31 35 35 35 36 34 33 32 31 31 30 29 30 32 33 35 36 38 39 40 40 39 39 38 36 34 33 33 32 32
33 33 33 33 32 32 31 31 31 31 31 31 32 31 31 31 30 30 30 29 29 30 31 31 31 30 30 31 33 38 39 35 33 37 37 36 37 37 37 36 35 35 33 31 31 31 32 33 35 37 39 41 42 41 40 39 38 36 36 35 34 33
30 30 30 30 30 30 30 30 30 30 31 31 31 32 32 31 31 31 31 30 31 32 32 33 33 32 32 31 32 35 36 34 34 37 39 39 38 39 40 40 39 39 36 34 33 32 31 32 34 36 38 39 42 43 42 41 40 39 38 37 36 35
29 29 29 30 29 29 29 28 28 29 29 30 30 32 32 32 32 31 31 31 32 33 33 34 35 35 35 34 34 35 34 33 33 35 38 41 41 41 43 44 42 41 41 39 36 34 33 33 33 35 37 38 40 42 43 44 43 41 40 39 38 37
28 28 29 29 29 29 29 28 28 28 29 29 29 30 31 32 31 31 32 32 33 34 35 35 36 37 38 37 37 37 35 34 33 34 36 39 42 44 46 47 46 44 43 42 39 37 36 35 35 35 37 39 39 41 42 44 44 44 42 41 40 38
27 27 27 28 29 29 29 29 28 28 29 29 29 30 30 31 31 31 31 32 32 33 35 36 37 38 38 39 40 40 39 37 35 36 37 38 40 44 48 49 48 47 45 43 42 41 39 39 38 37 37 39 40 41 42 42 43 44 44 43 41 40
27 26 26 26 27 29 29 29 29 29 29 29 29 29 30 30 31 31 31 32 33 33 34 36 37 38 39 40 41 41 41 40 39 39 39 39 39 41 46 50 51 50 47 45 45 44 43 43 42 40 39 39 40 41 42 42 42 43 43 43 43 43
27 26 25 25 26 27 28 28 29 29 29 28 29 29 29 30 30 31 31 32 33 33 34 35 37 39 40 40 41 41 42 42 42 42 41 41 40 39 41 48 53 53 51 50 48 47 46 44 43 43 42 41 40 41 42 41 41 42 42 44 45 45
27 26 25 25 25 26 27 27 28 28 29 29 29 29 29 30 30 30 30 31 32 32 34 35 36 38 40 41 41 41 42 43 43 43 43 43 42 40 39 43 50 54 56 54 52 51 49 46 46 47 46 44 44 44 42 41 41 42 44 45 45 45
27 27 26 25 25 26 26 27 27 28 28 28 29 29 29 30 30 31 31 31 31 32 33 34 35 37 39 41 42 42 43 43 44 44 45 45 45 43 42 43 46 51 55 58 57 55 53 49 48 51 50 47 47 47 44 43 44 43 44 46 46 46
28 28 27 26 26 27 27 27 27 28 28 28 28 29 29 30 30 31 31 32 32 32 33 34 34 36 38 39 41 43 43 44 44 45 46 46 47 46 46 46 45 47 50 55 57 59 59 52 47 50 52 51 50 48 48 48 47 45 45 46 47 47
28 28 28 28 28 28 28 28 29 29 29 29 29 29 29 30 30 31 32 32 33 33 34 34 35 35 37 38 40 43 44 45 45 46 46 47 48 48 49 49 48 48 49 50 53 56 58 55 51 48 47 52 53 51 51 51 50 49 48 47 47 48
29 29 29 29 29 29 30 30 30 30 30 30 30 30 30 30 31 31 32 33 33 34 35 36 36 36 37 38 40 42 44 45 45 46 47 48 49 49 50 51 51 51 51 51 51 52 51 53 56 52 47 50 52 51 52 52 53 53 52 51 49 49
30 30 30 29 29 29 30 30 31 31 31 31 31 31 31 31 32 32 32 33 33 34 35 36 37 37 38 38 39 41 43 44 46 47 47 48 49 50 51 52 53 53 53 53 53 53 51 51 55 55 53 54 54 53 53 52 53 56 55 54 53 51
30 30 30 30 29 29 29 30 30 31 32 32 32 32 32 32 33 33 34 34 34 34 35 36 37 38 39 39 40 41 42 44 46 47 48 48 49 50 51 53 54 54 54 55 55 55 54 53 54 54 53 56 59 57 54 51 51 54 57 57 55 53
31 30 29 30 29 28 28 29 30 31 32 33 33 34 34 34 34 34 35 35 36 36 36 37 37 38 39 40 41 41 42 44 45 47 47 48 49 50 51 53 55 55 55 57 57 56 56 55 55 54 52 54 59 60 56 52 50 51 55 57 57 56
31 30 30 29 29 28 28 29 30 31 32 34 35 35 36 36 37 37 37 36 37 37 38 38 38 39 40 41 42 42 43 44 45 46 47 48 49 50 51 52 54 55 56 58 58 58 57 56 56 56 53 52 56 61 58 52 50 53 55 58 60 59
31 31 30 30 29 29 29 30 31 32 34 35 36 37 37 38 39 39 40 39 39 39 39 39 40 40 41 42 42 43 44 45 45 46 48 48 49 50 52 52 53 54 56 58 59 59 58 58 57 57 55 53 55 60 62 56 51 52 55 60 62 60
32 31 31 31 31 31 31 32 33 34 35 36 37 38 39 39 40 41 42 42 42 42 41 41 41 41 42 42 43 44 44 45 46 46 47 49 50 50 51 53 53 54 55 57 59 60 60 60 59 59 58 57 56 58 62 62 56 51 51 56 61 61
34 33 33 33 33 33 34 34 35 36 37 38 39 40 40 41 41 42 43 44 44 45 44 43 43 42 43 43 44 45 45 46 46 47 48 48 49 50 51 52 53 54 54 56 57 59 61 61 61 61 60 60 59 58 59 61 59 53 50 52 55 59
36 35 35 36 36 36 37 37 37 38 38 39 40 41 42 42 43 44 44 45 45 46 46 45 45 44 44 44 45 45 46 46 47 47 48 49 49 50 51 52 53 54 54 55 56 57 59 61 62 63 63 62 62 61 60 59 57 55 53 52 51 53
38 38 38 39 39 39 39 39 40 40 40 41 42 42 43 43 44 44 45 45 45 45 46 46 46 46 45 45 45 46 46 47 47 48 48 49 50 51 52 53 53 53 54 55 56 56 58 60 62 63 64 64 64 63 61 60 58 57 57 56 54 51

ECMWFFLT2_500_spd_012.txt.gz
Wind_Speed
24 24 24 23 24 22 19 19 20 20 21 23 23 23 22 21 20 19 19 19 20 22 22 23 23 22 22 25 27 25 19 17 17 18 19 21 23 25 27 27 25 24 23 22 21 20 19 19 19 20 23 25 26 27 27 27 28 27 25 25 24 22
21 22 22 22 23 22 19 18 18 19 20 20 21 21 21 20 20 20 19 20 20 21 22 23 24 24 22 23 27 26 20 17 17 18 19 20 22 25 27 28 26 24 24 23 23 22 21 20 20 20 21 23 25 26 26 27 28 27 25 25 24 22
19 20 21 21 22 21 20 19 18 19 19 19 19 19 20 20 21 21 20 20 20 21 22 23 25 26 24 23 26 26 21 19 18 17 19 20 22 24 27 28 28 26 25 25 24 24 23 22 21 21 21 22 23 25 26 27 27 27 27 28 26 24
19 19 20 21 21 21 20 20 19 18 18 18 18 18 19 20 20 21 21 22 21 22 23 24 25 27 27 25 26 26 23 21 20 18 18 20 22 23 26 29 29 27 27 26 26 25 24 23 22 22 21 21 22 24 25 26 26 26 26 28 27 25
19 20 20 21 22 22 21 20 20 18 18 19 19 18 19 19 19 21 22 23 22 23 24 25 27 29 29 28 29 28 26 24 23 21 19 19 21 23 25 28 30 29 28 28 27 26 25 24 23 22 21 20 21 22 24 24 26 25 25 26 25 24
20 21 21 21 22 22 22 21 20 19 19 20 20 20 19 19 19 20 22 22 22 23 24 25 27 29 30 30 30 30 28 28 26 23 21 20 20 22 24 27 29 30 30 29 28 27 26 25 23 22 21 20 20 21 22 23 25 24 24 26 24 23
21 22 22 21 22 23 22 22 21 20 20 20 21 21 20 20 19 20 21 21 21 21 22 25 27 30 31 31 30 31 31 30 29 26 23 21 21 22 24 26 29 30 31 31 30 29 27 26 25 23 22 21 20 20 21 22 23 23 24 25 24 23
23 23 24 23 22 23 23 23 22 22 22 21 21 21 21 21 20 20 20 21 21 19 21 25 29 31 32 30 28 31 33 32 30 27 24 23 22 22 24 26 28 30 32 32 31 30 29 28 27 25 24 22 21 21 21 21 21 21 23 25 25 24
25 25 25 24 24 24 24 25 24 23 23 23 22 22 21 21 20 20 20 22 21 20 22 27 31 33 33 29 27 29 31 30 30 29 26 24 23 23 24 26 27 29 32 33 32 32 31 30 29 27 26 24 24 23 21 21 21 21 22 24 24 25
27 27 26 26 26 25 26 26 25 24 24 24 23 23 22 21 21 21 21 22 21 20 23 27 29 32 33 29 27 27 26 27 28 28 28 26 24 24 24 25 27 28 31 33 33 33 32 32 31 29 28 26 25 25 23 22 21 21 22 23 24 25
28 28 28 27 28 27 27 28 28 26 25 25 25 24 24 22 22 22 21 21 20 20 22 22 22 28 30 28 27 26 25 27 29 29 29 28 25 25 25 25 27 28 29 32 34 34 34 33 32 31 30 28 27 27 26 24 23 23 23 23 23 24
29 29 29 28 28 28 28 29 29 28 27 28 27 25 25 24 23 23 22 21 20 20 20 19 19 24 27 26 26 26 25 26 27 28 28 28 27 25 25 25 26 27 28 30 33 35 35 34 34 33 32 31 29 29 28 27 26 25 25 24 24 24
31 30 30 30 29 29 29 29 29 29 30 30 29 28 26 25 24 24 23 22 20 20 20 19 19 23 25 25 26 25 23 23 24 25 24 25 29 28 27 27 25 26 27 28 31 34 35 36 35 35 34 33 32 31 30 29 28 27 26 25 26 26
31 31 31 30 30 30 29 29 29 29 31 31 30 29 27 26 27 26 24 23 21 20 20 20 19 22 25 26 28 27 25 24 23 25 25 23 26 29 30 30 27 25 26 27 29 32 35 36 37 36 35 35 34 32 31 30 30 29 28 27 27 27
32 32 31 31 31 30 30 29 29 30 30 31 31 30 29 29 29 27 25 24 23 20 20 21 21 21 22 24 27 29 31 30 25 23 25 24 25 27 28 30 28 26 25 27 28 29 32 35 36 37 36 36 35 34 33 32 31 31 30 29 28 28
33 33 33 32 31 31 30 29 29 30 30 31 31 31 30 30 29 28 26 25 23 22 21 22 23 22 21 21 24 26 30 34 30 26 26 27 27 27 27 27 27 27 27 27 28 29 30 32 35 37 37 37 36 36 35 34 33 32 32 31 30 29
33 33 33 32 31 30 29 29 29 29 30 30 31 31 31 31 30 29 28 26 24 25 24 23 23 23 23 24 26 26 27 30 32 31 30 30 30 29 29 30 28 29 29 28 28 29 30 31 33 35 37 38 38 37 37 37 35 34 34 33 31 30
32 32 32 31 31 29 28 27 27 27 28 29 30 31 31 31 30 29 29 27 26 28 27 25 24 24 25 27 28 27 27 28 31 33 33 33 33 32 30 32 31 30 31 31 29 29 30 31 33 35 36 37 38 38 38 38 38 37 36 34 33 32
30 30 30 30 29 28 27 26 26 25 26 27 28 29 30 31 30 30 29 29 29 29 28 27 27 26 27 28 29 29 28 29 30 32 34 35 36 36 32 33 33 31 32 33 33 32 31 32 33 35 36 36 37 38 38 39 39 39 38 37 35 34
29 29 29 29 29 28 27 27 26 26 25 25 26 27 29 29 29 29 29 29 29 29 29 29 29 28 29 29 30 30 30 30 29 30 33 37 39 39 36 36 36 34 34 35 35 35 35 34 34 35 36 36 36 37 38 39 40 41 40 39 37 37
28 28 29 29 29 28 28 27 26 26 26 26 26 26 27 28 28 28 28 28 29 29 29 30 30 30 30 31 31 32 32 31 31 31 33 36 38 38 36 37 39 37 36 36 36 36 36 36 36 36 36 35 36 37 38 38 39 39 40 40 39 39
28 28 28 28 29 28 28 28 27 26 25 26 26 27 27 28 28 28 28 28 28 28 28 30 31 31 31 32 33 33 33 33 34 34 35 36 36 36 34 34 39 40 40 40 40 39 38 37 37 38 38 37 36 37 37 37 36 37 38 39 40 41
27 27 27 28 28 28 28 28 27 27 25 25 26 26 27 28 28 28 27 27 27 27 28 28 29 31 32 32 33 34 35 35 36 36 37 38 38 38 35 33 36 40 40 41 42 43 42 41 40 41 41 40 38 38 37 36 35 36 37 38 39 40
26 27 27 27 28 28 27 27 27 27 26 25 26 26 26 27 27 27 27 27 27 27 28 28 28 30 31 32 33 34 35 36 37 37 39 41 42 42 40 38 38 39 40 40 41 43 45 47 47 46 44 42 40 39 38 38 37 36 37 38 39 39
26 27 27 27 27 27 27 27 27 27 27 26 26 26 26 27 27 27 27 27 27 27 28 28 28 28 30 31 32 33 34 35 36 38 39 41 43 43 43 42 41 42 42 40 40 41 44 47 49 50 49 46 43 40 39 41 41 39 38 39 39 39
27 26 27 27 27 27 27 27 27 27 27 27 26 26 26 27 27 28 28 28 28 28 28 28 28 28 28 30 31 32 33 35 36 37 39 40 42 43 44 44 43 43 43 42 41 42 43 43 46 50 51 50 48 45 44 45 45 42 41 41 40 40
27 27 27 27 27 27 27 27 27 26 26 26 26 27 27 27 28 28 29 29 29 29 29 29 29 29 29 29 30 31 33 34 35 36 38 39 41 42 43 44 45 45 44 44 44 44 43 42 43 47 50 52 51 50 50 49 48 46 45 44 43 43
28 27 27 27 27 27 26 26 26 25 26 26 26 27 27 27 28 28 29 29 30 30 31 31 30 30 30 30 30 31 32 34 34 36 37 38 40 41 42 43 45 46 46 46 46 45 44 44 44 44 47 51 53 53 53 51 50 49 48 47 47 46
28 27 27 27 26 26 26 26 26 26 26 26 27 27 27 28 28 28 29 30 30 30 31 32 32 32 31 31 31 31 32 33 34 36 36 38 39 40 42 43 45 46 47 47 47 47 47 47 46 45 46 49 51 54 55 53 51 50 49 48 49 50
29 27 27 26 26 26 26 26 26 27 27 27 27 27 27 28 28 28 29 29 30 30 31 31 32 32 33 33 32 32 33 33 34 36 37 38 39 40 41 42 44 46 47 48 48 49 48 49 49 48 48 49 49 52 55 56 54 54 53 49 46 48
29 27 26 27 27 27 27 28 28 28 28 28 28 28 28 28 28 28 28 29 29 29 30 31 31 32 33 34 34 34 34 34 35 36 37 38 39 40 41 42 44 46 47 48 49 50 49 50 51 51 51 51 52 51 53 55 56 58 60 57 51 48
29 27 26 27 27 27 28 28 28 29 29 28 28 28 28 28 29 29 29 29 29 29 30 30 31 31 32 33 34 35 36 36 36 36 37 38 40 41 41 43 44 46 47 48 50 51 51 51 52 53 53 54 54 53 54 54 54 56 58 59 58 54
29 28 27 27 28 27 27 28 28 28 29 29 29 29 29 29 29 30 31 31 31 31 31 31 31 31 32 33 34 35 36 37 38 38 38 39 40 41 42 43 44 46 48 49 50 51 52 52 53 54 55 55 55 56 56 55 55 55 55 56 56 54
30 29 28 28 28 28 27 28 28 28 29 29 29 30 30 30 30 31 32 33 33 34 34 34 33 33 33 33 34 35 35 36 38 39 40 40 41 42 43 44 45 46 48 49 50 52 52 53 53 55 56 56 57 57 58 58 57 57 57 57 55 53
30 30 29 28 29 29 29 28 29 29 30 30 30 31 31 32 32 33 34 34 35 36 36 37 36 36 36 36 36 36 36 37 37 39 40 41 42 43 44 45 45 46 48 50 51 52 53 54 54 55 56 57 57 58 59 59 59 59 59 58 57 56
31 30 29 29 30 30 30 30 30 31 31 32 32 33 33 33 34 34 35 36 37 37 38 38 39 39 39 39 39 39 39 39 39 39 40 41 43 44 45 46 47 47 48 50 51 52 53 54 55 56 57 58 58 58 59 60 60 61 60 59 58 58
33 32 30 30 31 32 32 32 32 33 33 33 34 34 35 35 36 37 37 38 38 39 39 39 40 40 41 41 42 42 41 41 41 41 41 41 42 44 45 47 48 49 49 50 51 52 53 54 55 56 57 58 59 59 59 60 61 61 61 60 59 59

ECMWFFLT2_500_spd_015.txt.gz
Wind_Speed
26 26 25 24 24 23 21 20 19 19 19 19 20 21 23 23 23 22 22 22 22 22 22 21 20 21 23 24 23 23 22 20 20 20 19 19 20 21 22 24 25 25 24 22 21 20 20 19 19 18 19 22 23 25 28 29 28 29 29 26 25 24
26 26 25 23 22 21 19 18 18 18 18 18 18 20 21 22 21 21 21 22 22 22 22 21 21 22 23 23 23 23 25 24 22 21 21 20 21 22 23 25 26 26 25 24 22 22 22 20 20 19 19 21 23 24 26 27 27 28 29 27 26 25
24 22 22 21 20 19 18 17 17 17 17 17 18 18 19 20 20 19 20 21 22 22 22 22 21 22 23 24 24 24 26 27 25 23 23 22 22 23 23 25 27 27 26 25 25 24 24 22 21 20 19 21 23 24 24 25 27 28 28 28 27 25
22 21 20 20 19 18 17 17 17 16 16 17 17 18 18 18 18 18 18 20 21 22 23 23 22 22 23 24 25 25 25 25 25 23 24 24 23 23 24 25 27 28 28 27 27 26 25 23 22 21 20 20 22 24 24 24 26 28 28 28 27 26
21 21 20 19 18 18 18 17 17 16 16 16 16 17 17 18 18 18 18 18 20 22 24 24 24 23 23 23 25 26 25 25 26 25 24 24 23 23 24 24 26 29 29 29 28 27 26 24 22 22 20 20 21 21 23 23 25 27 27 28 27 26
20 21 20 19 18 18 19 18 17 17 16 16 16 17 18 18 18 18 18 18 19 21 23 24 25 24 23 23 24 26 27 27 28 27 25 24 23 23 24 24 26 29 30 30 30 29 27 26 23 22 21 20 20 20 21 22 23 24 26 28 27 26
20 19 19 19 19 19 19 19 18 18 17 17 17 17 18 18 18 18 18 18 19 21 23 24 24 25 24 23 25 26 27 28 28 28 27 25 24 23 24 25 26 29 31 32 31 30 28 27 25 23 22 21 20 19 19 19 21 23 24 26 27 25
21 19 19 20 20 21 21 21 20 19 18 18 18 18 18 18 18 18 17 18 20 21 22 23 25 26 24 23 24 26 28 29 30 29 28 27 26 24 24 26 27 28 31 33 33 32 30 28 26 25 24 22 20 20 19 18 20 21 22 25 25 24
23 20 20 21 22 23 23 22 21 20 20 19 20 20 19 19 18 18 17 17 20 20 21 21 23 24 23 22 23 26 29 30 31 31 29 29 28 26 25 26 27 28 30 33 34 33 32 30 28 28 26 24 22 21 20 18 19 21 22 24 24 23
25 23 23 23 23 24 25 24 23 22 22 22 22 22 21 20 19 18 18 18 20 20 20 19 19 19 19 22 24 25 28 31 32 32 31 30 30 28 26 26 28 28 29 32 34 34 33 32 31 29 28 26 24 23 21 19 19 21 22 23 23 23
27 26 25 24 24 25 25 25 24 23 23 24 24 23 23 22 20 20 19 20 20 20 19 18 18 18 18 21 25 27 28 30 33 34 35 33 32 31 28 27 28 28 29 31 33 34 34 33 32 31 29 28 26 24 23 21 20 22 22 23 23 22
28 28 27 26 25 25 25 26 25 25 25 25 25 24 24 23 22 22 21 21 20 20 19 17 17 18 19 19 20 23 27 30 31 33 37 37 34 34 31 29 28 28 29 29 31 33 34 34 33 33 31 30 28 26 25 24 23 23 23 23 23 22
29 29 29 28 26 26 25 25 26 26 27 27 26 25 24 25 25 24 22 22 21 21 20 17 16 17 18 17 15 17 23 29 27 27 33 36 35 34 34 33 30 28 28 29 29 31 33 34 34 34 33 32 30 29 27 26 25 24 24 24 23 23
30 29 29 29 28 27 26 26 26 27 27 27 26 26 26 26 26 25 23 23 22 22 21 19 17 17 17 17 16 15 18 26 26 23 26 31 34 35 35 35 31 28 28 29 29 30 32 34 35 35 34 33 32 31 30 28 27 27 26 25 25 24
30 30 30 30 29 28 27 27 27 27 27 28 27 27 27 28 27 25 24 24 23 22 22 21 19 18 17 17 17 17 17 23 26 25 23 23 29 34 35 34 33 30 29 29 30 29 30 32 34 35 35 34 33 33 32 31 29 28 28 27 26 25
31 30 30 30 30 29 28 28 28 28 28 28 28 28 28 28 27 25 25 25 24 23 23 23 21 19 17 16 19 20 19 24 28 29 26 20 19 25 31 34 34 33 31 30 30 30 30 31 33 35 36 35 34 34 34 33 32 31 29 29 28 27
31 31 31 31 31 30 29 29 29 28 28 27 27 28 28 28 27 26 25 25 25 25 24 23 22 21 18 17 19 21 20 22 27 29 29 27 21 17 21 28 32 34 34 32 31 31 30 30 31 33 34 35 35 35 34 34 34 32 31 30 30 29
31 31 31 31 31 31 30 29 28 27 27 26 26 27 27 27 27 26 25 26 27 26 24 23 23 22 20 19 19 21 21 20 22 25 26 28 28 23 19 22 25 29 33 34 32 31 31 30 30 30 32 33 35 35 35 35 34 34 33 32 31 31
32 31 31 31 30 30 29 28 26 26 25 25 25 25 25 25 25 25 25 26 28 26 24 24 25 24 22 22 21 21 22 21 21 22 23 24 27 27 25 24 23 24 28 32 33 32 31 30 29 29 30 32 33 34 34 35 35 35 35 34 34 33
31 31 31 30 29 29 28 27 25 25 25 24 24 24 24 23 23 24 24 25 27 26 25 26 26 25 24 23 23 23 22 22 22 23 24 24 24 26 27 27 28 28 27 27 31 33 33 31 31 30 31 31 32 32 33 34 36 36 36 36 36 35
30 30 30 29 28 28 28 26 25 25 24 24 24 24 24 23 23 22 23 23 24 25 26 26 25 25 25 25 24 24 24 23 24 24 26 26 23 23 25 27 29 31 30 28 28 32 35 35 34 33 32 32 32 32 32 34 35 36 36 36 37 37
29 29 29 28 27 27 27 26 25 24 24 24 24 24 24 23 22 22 22 22 23 23 24 25 24 25 25 25 24 24 24 25 26 26 28 28 25 25 25 26 27 29 31 31 30 31 34 35 34 35 35 33 31 32 33 34 34 35 36 36 37 38
27 28 29 28 27 26 26 26 25 24 24 24 24 23 24 23 23 22 22 22 22 23 23 23 24 24 25 24 24 24 24 25 27 28 29 29 29 28 28 27 27 27 30 32 32 32 34 35 34 35 36 35 33 34 34 34 34 35 37 37 37 37
26 27 28 28 28 26 26 26 25 25 24 24 24 23 23 24 23 23 22 22 22 23 23 23 24 24 25 24 24 24 24 24 26 28 29 30 31 31 31 31 30 30 30 31 32 33 34 35 36 36 36 36 36 36 35 35 36 36 37 37 37 38
25 26 27 28 28 27 26 26 26 25 25 25 24 24 24 24 24 24 24 23 23 23 23 23 24 24 24 25 24 25 25 25 26 27 28 30 31 32 32 33 34 34 34 33 34 35 34 33 35 40 40 38 38 38 37 39 39 38 38 38 38 38
25 26 27 27 28 28 27 26 26 26 25 25 25 25 24 24 24 24 25 24 24 23 23 23 23 24 24 25 25 25 25 26 26 26 27 29 30 32 33 34 36 37 37 37 37 38 36 34 35 39 39 38 39 40 41 42 41 40 40 40 39 39
24 25 27 27 27 27 27 26 26 26 26 26 26 26 25 25 25 25 25 26 25 25 25 24 24 24 25 25 25 26 26 26 27 27 27 28 29 31 32 34 36 37 38 38 39 39 38 37 38 38 38 38 39 41 42 44 44 44 44 43 41 41
24 25 27 27 26 26 27 26 25 25 26 26 27 27 26 26 26 26 26 26 26 26 26 26 25 25 25 25 26 26 26 27 27 28 28 28 29 30 31 33 34 36 38 38 39 40 39 40 41 40 40 41 40 40 40 42 43 45 47 46 44 43
24 25 26 26 25 25 26 26 26 25 25 26 26 27 27 27 27 26 27 27 27 27 27 27 27 26 26 26 26 27 27 28 28 29 29 29 30 30 31 32 33 35 37 38 38 39 40 42 42 42 42 43 42 41 40 41 42 43 44 46 47 47
24 24 25 25 25 25 25 26 26 25 25 26 26 26 27 27 27 27 27 27 28 28 28 29 28 28 28 27 27 27 28 28 29 29 30 30 30 31 31 32 33 34 36 37 37 38 40 42 43 43 44 45 44 43 43 43 43 42 41 43 45 48
24 23 23 24 24 24 24 25 26 26 26 26 26 26 27 27 28 28 28 28 28 29 29 30 30 30 30 29 29 29 29 29 29 30 30 31 31 32 32 32 33 34 36 37 37 38 39 40 42 43 44 46 46 45 46 46 45 44 44 43 43 44
24 23 22 24 24 24 24 25 25 26 27 27 27 27 27 28 28 29 29 29 29 30 30 30 31 31 31 31 30 30 30 30 30 30 31 31 32 33 33 34 34 35 36 37 38 39 39 40 41 42 43 45 46 46 47 48 47 47 47 46 45 44
24 23 22 23 24 24 24 24 25 26 27 27 27 28 28 28 29 29 29 29 30 30 30 30 31 31 31 31 31 31 31 31 31 32 32 32 33 33 34 35 36 36 37 38 39 39 40 41 42 43 44 45 46 46 47 48 49 49 49 49 49 47
24 23 22 23 24 24 24 25 24 25 27 28 27 28 28 28 28 29 29 29 29 30 30 30 30 30 30 30 30 31 31 32 32 33 33 34 34 34 35 35 37 37 38 39 40 40 41 41 42 43 44 45 46 47 47 48 49 50 51 51 51 50
24 23 22 22 24 25 25 25 25 25 26 27 27 27 28 28 28 29 29 29 29 30 31 31 31 31 31 31 31 31 32 32 33 33 34 35 35 36 36 36 37 38 39 40 41 41 42 43 43 44 45 46 47 47 48 48 50 51 51 52 53 52
26 24 23 23 24 26 25 26 26 27 27 28 28 28 29 29 29 29 30 31 31 31 32 32 33 33 33 33 34 34 34 34 34 34 34 35 36 37 38 38 38 39 40 40 41 42 43 44 44 45 47 47 47 48 49 49 50 51 52 53 53 54
28 27 25 25 25 26 26 27 28 29 29 30 30 30 31 31 30 31 32 32 32 33 33 33 34 34 34 34 35 35 36 36 36 36 36 36 37 37 38 39 40 40 41 41 42 43 44 44 45 46 47 49 49 49 49 50 51 52 52 53 54 55

ECMWFFLT2_500_spd_021.txt.gz
Wind_Speed
21 20 18 18 17 17 17 17 17 17 17 18 18 18 18 19 20 21 23 23 24 24 24 24 24 24 23 23 21 20 20 19 18 19 20 21 22 21 22 23 22 23 24 25 26 26 24 21 18 16 15 17 19 19 19 22 25 28 28 28 27 25
20 19 18 17 16 16 15 16 16 16 16 16 17 17 17 18 19 20 22 22 22 23 23 23 23 23 22 22 22 21 20 19 19 19 20 21 22 21 22 23 22 23 24 25 27 26 25 23 19 17 16 17 19 19 19 20 24 27 28 29 28 27
19 18 17 16 15 14 14 15 15 15 15 15 16 16 16 17 18 19 20 20 20 20 21 21 21 21 21 21 21 20 19 19 19 20 20 21 22 22 22 22 22 23 24 25 27 27 26 24 21 18 17 17 18 19 19 20 22 25 27 28 29 28
18 16 15 14 14 14 15 15 15 15 15 15 15 16 16 16 17 18 19 19 19 19 19 19 19 19 20 20 20 19 19 19 20 20 20 21 22 23 22 21 22 23 24 25 27 27 27 25 22 19 18 18 19 20 20 20 21 23 26 27 28 29
17 15 14 14 14 15 16 16 16 16 16 16 16 16 16 16 16 17 17 18 18 18 18 18 18 18 18 19 19 19 19 20 21 21 20 21 23 24 24 23 22 22 24 25 27 27 28 26 23 21 20 19 19 20 20 20 20 22 24 26 27 29
16 15 15 15 15 16 16 16 17 16 16 16 16 16 16 16 15 16 17 17 17 18 18 18 18 17 17 18 18 19 20 20 21 21 21 22 23 25 25 25 24 23 24 25 26 28 28 27 25 23 21 20 20 20 20 20 20 21 23 24 25 27
16 15 15 16 16 17 17 17 17 17 17 17 17 17 16 16 16 16 17 17 17 18 18 17 16 16 17 17 18 19 20 21 21 22 22 22 24 26 27 27 27 25 25 26 26 27 29 29 27 25 23 21 21 21 20 19 19 21 22 23 24 25
17 16 16 17 17 18 18 18 18 18 17 18 17 17 17 17 17 17 17 17 17 17 17 17 16 16 16 18 18 19 21 22 22 22 23 24 25 27 28 29 29 28 27 27 26 27 29 30 29 27 25 23 22 21 21 20 19 20 22 23 24 24
18 17 17 18 18 19 19 19 19 19 19 19 19 18 18 19 19 19 18 18 18 18 18 17 16 16 16 19 19 19 20 21 23 23 24 25 26 27 29 30 30 30 30 28 28 28 29 30 30 29 27 25 23 22 22 21 20 20 22 24 24 24
18 18 18 19 20 20 20 20 20 20 20 20 20 20 20 21 21 20 19 19 19 19 19 18 17 16 17 19 18 18 19 20 23 25 25 26 27 28 30 31 30 31 31 30 30 30 30 31 31 31 29 27 25 24 23 22 21 20 22 23 24 24
18 19 20 20 21 21 21 21 21 21 21 21 21 21 22 22 21 21 20 20 20 20 20 19 18 17 17 18 18 18 19 20 22 24 26 28 29 30 30 32 31 30 32 31 31 31 31 31 32 32 30 28 26 25 25 24 23 22 22 22 22 23
19 20 21 22 22 22 22 22 22 22 22 22 22 23 23 22 21 21 21 20 20 20 21 21 19 18 18 19 19 19 19 20 21 23 26 27 29 31 31 32 32 31 32 32 32 32 32 31 32 32 31 30 28 26 26 25 24 23 22 22 22 22
20 21 22 22 23 23 23 23 23 23 23 22 23 23 23 22 21 22 22 21 21 21 22 22 21 19 19 20 20 19 20 19 19 22 24 23 25 29 31 32 32 32 33 34 33 33 33 32 32 33 33 31 29 28 27 26 25 25 24 22 22 22
23 23 23 24 24 24 24 24 24 24 24 23 23 24 24 23 23 23 23 23 22 22 23 23 22 20 20 22 21 20 19 18 19 21 23 22 23 27 29 31 32 33 34 35 35 34 34 33 32 33 33 32 31 30 29 28 27 26 26 24 23 22
26 26 25 25 25 25 25 24 24 25 24 24 24 24 25 25 24 24 24 24 24 24 24 24 23 22 22 23 21 20 19 20 20 21 22 22 23 24 26 30 31 33 34 35 36 35 35 34 33 33 33 33 33 33 31 30 29 28 27 27 25 24
28 28 27 26 26 26 25 25 25 25 25 25 25 25 25 25 26 25 25 26 26 26 26 25 24 24 25 24 21 20 21 22 20 19 20 21 23 23 25 28 29 31 33 35 37 37 36 35 34 33 32 33 33 33 33 32 31 30 30 29 28 26
29 29 28 27 27 26 26 25 25 25 26 26 26 26 26 26 27 27 27 27 27 27 27 27 26 26 27 24 21 22 23 22 20 18 19 21 22 23 24 26 28 30 32 34 37 39 38 37 35 33 32 33 33 34 35 34 34 33 32 31 30 29
30 30 29 28 28 27 26 25 25 26 26 27 26 26 27 27 28 28 28 28 27 28 28 28 27 27 27 24 23 24 24 23 21 20 21 22 22 21 22 25 29 30 30 33 37 39 41 40 37 35 34 34 33 34 36 36 36 35 34 33 32 32
30 30 30 29 28 27 26 25 25 25 26 27 27 27 27 27 27 28 28 27 27 27 28 28 27 27 28 26 25 26 25 23 23 22 22 22 22 21 19 22 26 26 24 29 37 39 40 41 40 38 37 36 34 34 35 37 37 37 36 35 34 33
30 30 30 29 29 28 27 26 25 25 25 26 26 26 26 26 26 26 27 27 26 26 26 26 26 26 27 27 27 28 26 24 23 24 24 23 22 20 18 19 21 23 19 22 32 36 37 38 39 39 39 38 36 35 35 36 37 38 38 37 36 35
30 30 30 29 29 28 27 27 26 25 25 25 26 26 26 26 26 26 26 26 26 26 26 26 25 25 25 26 27 28 27 25 25 25 26 25 22 20 19 19 20 20 18 19 25 31 34 35 37 40 41 40 38 36 35 35 36 38 39 39 39 38
30 30 29 29 28 28 27 27 26 25 25 25 25 25 26 25 25 25 25 26 26 26 26 26 25 25 25 25 26 28 28 27 27 27 27 27 25 22 20 19 20 20 19 20 22 26 30 33 36 39 39 40 39 37 36 36 37 38 39 41 41 40
30 30 30 29 28 28 27 27 26 26 25 25 25 25 26 25 25 25 25 25 26 26 26 26 25 25 25 25 25 27 28 28 28 28 28 28 27 24 22 21 22 22 20 21 22 22 25 28 33 37 36 37 40 40 38 37 37 38 40 41 42 41
30 30 30 29 28 28 28 27 27 26 26 25 25 25 26 25 25 24 24 24 25 25 25 25 25 25 25 25 25 25 26 27 28 29 29 29 28 26 25 25 24 23 22 22 22 22 23 25 28 32 35 37 40 40 39 38 38 39 39 40 40 41
28 30 30 29 28 28 28 28 27 26 26 25 25 25 25 25 24 24 23 23 24 24 24 24 24 24 24 25 25 25 25 26 27 28 29 29 29 28 28 29 28 26 25 25 24 23 24 25 25 27 30 34 38 39 39 40 40 40 40 40 39 40
28 29 29 28 28 28 27 27 27 26 26 25 25 25 26 25 25 24 23 23 23 24 24 24 24 24 24 24 25 25 25 26 26 27 28 28 29 29 29 30 30 29 28 28 27 26 25 26 26 27 28 30 34 37 39 41 42 42 42 41 40 40
27 28 28 27 26 26 26 26 26 25 25 25 25 25 26 26 26 25 24 23 23 23 23 23 23 24 24 24 24 25 25 26 26 26 27 27 27 27 28 29 29 29 29 29 29 29 28 28 27 28 28 29 31 33 36 39 40 40 41 41 41 41
26 27 27 25 25 25 25 25 25 24 24 24 25 25 26 26 26 26 25 24 24 23 23 23 23 23 24 24 24 25 25 26 26 26 26 27 27 27 27 27 28 28 28 28 29 29 30 31 31 29 29 29 30 31 33 35 36 37 38 39 40 42
25 26 26 24 24 24 24 24 24 24 23 23 24 25 26 27 27 27 26 26 25 24 23 23 23 23 23 24 24 24 25 25 26 26 26 26 26 26 26 26 26 27 27 28 28 29 30 31 32 33 32 32 32 32 33 34 35 36 36 36 37 39
23 24 25 24 23 23 23 23 24 24 23 23 24 25 26 27 27 28 27 26 26 26 25 24 23 23 23 23 23 23 24 24 25 26 26 26 26 26 26 26 26 26 27 27 28 29 30 31 31 32 33 34 34 34 35 35 36 36 37 37 36 37
21 23 24 24 22 22 22 22 23 24 23 23 23 25 25 26 27 28 27 27 27 26 26 26 24 23 23 23 23 23 23 23 24 25 26 26 26 26 26 26 26 26 26 27 27 28 29 30 31 31 32 33 34 35 36 37 38 38 39 40 39 38
21 21 22 22 22 22 22 22 22 23 23 23 23 24 25 26 27 28 28 27 27 26 26 26 26 25 24 23 23 23 23 23 24 24 25 26 26 26 26 26 26 27 27 27 27 28 29 30 30 31 31 32 33 33 34 36 37 39 40 41 41 40
21 22 21 21 21 22 22 22 22 22 23 23 23 23 24 25 26 27 28 27 26 26 25 25 26 26 26 25 25 24 24 24 24 25 25 26 26 26 27 27 27 27 28 28 28 28 29 30 31 31 31 32 32 33 33 34 35 36 38 39 40 40
23 23 23 23 23 23 23 23 23 22 23 23 23 24 24 24 26 27 27 27 26 26 26 25 25 25 25 26 26 26 25 25 25 25 26 26 27 27 28 28 28 28 29 29 29 30 30 30 31 32 32 32 32 33 33 33 33 34 36 37 38 38
24 25 25 25 25 25 25 24 23 23 23 23 24 24 24 24 25 26 26 27 27 26 26 25 25 24 25 25 25 25 25 25 26 26 26 27 27 28 29 29 29 30 30 30 30 30 31 31 32 32 33 33 33 34 34 35 35 35 35 36 37 37
23 23 25 26 27 27 27 26 26 25 24 24 25 25 25 25 25 26 26 26 26 26 26 25 25 24 24 24 24 25 25 25 25 25 26 26 27 28 29 30 30 31 31 32 32 32 32 32 33 33 34 34 34 35 35 36 37 37 37 37 38 38
21 22 24 25 27 27 27 27 27 27 27 26 25 25 25 25 26 26 26 26 26 26 26 26 25 25 25 25 25 25 26 26 26 26 26 27 28 29 29 30 31 32 33 33 34 34 34 34 34 35 35 36 36 36 36 37 38 38 39 39 39 40

ECMWFFLT2_500_spd_024.txt.gz
Wind_Speed
24 21 20 19 18 17 16 16 16 16 16 16 16 17 17 17 17 19 19 20 21 21 21 23 23 23 22 22 22 21 20 20 19 17 16 16 17 18 20 20 20 19 18 16 15 20 24 23 21 20 18 15 12 12 13 15 18 21 24 25 26 25
22 21 20 18 17 16 15 15 15 15 15 15 15 16 16 16 17 18 18 19 20 20 20 21 22 22 21 21 20 20 20 20 20 18 17 17 18 19 20 21 21 20 21 20 16 19 25 24 22 21 20 17 14 13 13 14 16 19 22 24 25 25
22 20 19 17 16 15 15 14 14 14 14 14 14 15 15 15 16 16 16 17 18 19 19 19 20 20 20 20 19 19 19 19 19 19 18 18 18 19 21 22 22 20 21 21 17 19 25 25 23 22 21 19 16 14 13 14 15 18 21 23 25 25
21 19 18 16 16 15 14 14 14 13 14 14 14 15 15 15 15 15 16 17 17 18 18 18 19 19 19 19 18 18 18 18 19 19 18 18 19 20 22 22 23 21 20 22 18 19 25 26 24 23 22 21 17 16 15 14 15 17 20 22 24 25
19 18 16 16 16 15 14 14 14 14 14 14 14 15 15 15 15 15 16 16 17 17 17 18 18 19 19 19 18 18 18 18 18 18 18 19 20 21 23 23 24 22 21 22 19 18 24 27 25 24 23 22 19 17 16 14 14 16 18 20 22 24
18 16 16 16 16 15 15 15 15 15 15 15 15 16 16 15 15 15 16 16 16 17 17 17 18 18 19 19 18 18 18 17 17 18 18 19 21 21 23 25 25 23 22 22 20 18 23 27 27 25 24 23 21 19 18 16 15 16 18 20 21 23
17 16 16 16 16 16 15 15 15 15 15 16 16 16 16 15 15 16 16 16 16 16 17 17 17 18 18 18 18 18 18 16 17 18 19 20 21 22 23 25 25 24 23 22 20 19 22 27 28 26 26 25 23 21 19 18 17 17 18 19 20 22
18 17 17 17 16 16 16 16 16 16 17 17 17 17 17 16 17 17 18 17 17 17 17 17 17 18 18 18 19 19 18 17 18 19 20 20 21 22 22 24 26 25 24 23 22 21 21 25 28 28 27 26 25 22 21 20 19 18 18 19 20 21
18 18 17 17 17 17 17 17 17 18 18 18 18 18 18 18 18 19 19 19 18 18 18 18 18 18 19 20 20 19 18 17 18 20 21 21 22 23 23 24 25 26 26 25 23 22 21 24 28 29 29 28 27 25 23 22 20 19 18 19 20 21
18 18 17 17 18 18 18 18 19 19 19 19 19 19 19 20 20 21 20 20 19 19 19 20 20 20 20 21 20 18 15 14 17 20 21 21 23 24 25 24 24 26 28 27 25 23 22 23 26 29 30 30 29 27 25 23 22 20 19 19 20 21
18 18 18 18 19 19 20 20 20 20 20 20 20 20 21 22 22 22 21 21 21 21 20 21 22 22 21 21 20 17 14 15 18 20 19 20 23 25 25 25 25 25 27 29 28 26 24 24 25 28 31 31 30 28 26 24 23 21 20 20 20 21
18 19 19 19 20 20 21 21 21 20 20 21 21 21 22 23 23 22 22 21 21 22 21 21 24 24 21 20 19 18 16 17 20 20 17 17 19 23 25 26 26 26 27 28 30 29 28 27 26 27 30 32 32 29 28 26 24 23 22 21 21 21
19 20 20 20 21 21 22 22 21 21 21 21 22 22 23 23 23 23 23 22 21 21 22 22 25 25 21 20 20 21 20 19 19 18 18 17 17 19 23 26 27 27 27 28 30 31 30 30 29 27 28 32 33 32 30 29 26 25 24 23 22 22
21 21 21 22 22 22 22 22 22 22 22 22 22 23 23 23 24 24 23 22 21 21 23 24 26 25 22 21 22 23 22 20 20 19 19 20 19 19 20 24 27 28 28 28 30 31 31 32 31 30 29 30 33 34 33 31 28 27 26 25 24 23
22 22 22 23 23 23 23 23 23 23 23 23 23 23 23 23 24 24 24 23 22 23 24 25 26 25 23 22 23 23 22 21 21 21 21 21 21 21 20 20 23 25 27 28 30 31 32 32 31 32 31 30 32 35 35 33 31 30 29 28 26 25
23 23 23 24 24 24 25 25 25 25 24 24 24 23 23 23 24 25 24 24 24 24 25 25 25 26 25 24 24 23 23 23 23 23 22 21 21 22 22 20 19 22 24 27 29 30 31 32 32 33 32 32 32 34 36 35 34 32 31 30 29 27
24 24 24 25 25 25 25 25 25 25 25 24 24 24 24 24 24 25 25 25 25 25 26 25 25 26 26 26 25 24 24 25 25 24 22 21 20 21 22 21 20 21 22 26 28 30 31 32 33 34 34 33 33 33 35 37 36 34 33 31 30 29
26 25 25 25 25 25 25 25 26 25 25 25 25 25 25 25 24 25 25 26 26 26 26 26 26 26 27 27 27 26 25 26 26 25 23 21 20 21 22 21 20 20 21 25 27 28 29 31 33 35 36 35 34 34 34 36 37 35 34 33 32 31
27 26 26 25 25 25 25 25 26 26 26 25 25 26 26 26 25 26 26 27 27 27 27 26 26 27 27 28 29 28 27 28 27 25 25 23 22 21 22 21 20 19 19 22 27 28 27 30 32 35 38 38 37 36 34 35 37 37 35 35 35 34
27 27 26 25 25 25 25 25 25 26 26 26 26 26 26 26 26 26 27 27 28 28 27 26 25 26 27 28 29 29 27 28 29 26 25 25 24 23 22 21 21 20 17 18 24 27 27 29 31 33 38 40 39 37 35 35 36 38 38 38 37 37
27 27 26 25 25 25 25 25 25 26 26 26 26 26 26 27 27 27 27 28 28 28 27 26 25 25 26 27 28 28 27 28 29 28 27 26 26 24 22 22 21 20 19 18 20 23 24 27 30 30 35 39 41 40 37 36 36 38 39 40 40 39
29 28 27 26 25 25 25 25 25 25 26 26 26 26 26 26 26 26 27 27 27 28 27 26 25 25 25 26 27 27 26 26 28 29 30 30 28 25 23 23 22 21 21 21 20 21 22 23 25 27 31 35 39 42 40 37 37 38 40 41 41 41
29 29 28 27 26 25 25 24 25 25 26 26 26 26 26 26 26 26 26 27 27 27 27 26 25 25 25 26 27 27 26 25 26 28 30 31 30 28 26 24 24 24 23 21 21 21 22 22 21 22 27 30 33 39 43 40 38 38 40 41 42 42
28 27 27 26 26 25 25 25 25 25 25 25 25 25 26 26 26 26 26 26 27 27 27 26 25 24 24 25 26 27 26 26 25 26 28 30 31 31 29 27 26 26 24 22 21 21 21 22 22 20 22 26 29 33 39 41 41 39 40 41 41 41
26 25 25 25 25 25 25 25 26 25 25 25 25 25 25 26 26 26 26 26 26 26 26 26 25 24 24 24 25 26 26 26 25 25 26 28 30 31 32 30 29 28 26 24 23 22 21 22 24 22 20 22 26 29 32 36 39 40 40 41 41 41
24 24 24 25 25 26 26 26 26 26 25 25 25 25 25 25 26 26 26 26 25 25 25 25 24 24 23 24 24 25 26 25 25 24 25 26 27 29 30 31 30 30 29 27 25 25 23 23 24 24 21 20 23 27 30 33 35 36 37 39 41 40
23 22 23 25 26 27 27 27 26 26 26 26 25 25 25 25 25 26 26 26 25 25 25 25 24 23 23 23 24 24 25 25 24 24 24 24 25 26 28 29 30 30 30 30 29 28 27 26 25 24 23 22 22 24 28 32 35 35 35 37 39 40
21 22 23 25 26 27 28 27 27 26 26 26 26 25 25 25 25 25 25 25 25 24 24 24 24 23 23 23 23 23 24 24 24 24 23 24 24 24 25 26 27 28 29 30 30 30 30 29 28 27 26 25 24 23 24 28 32 35 36 37 38 39
20 21 22 24 26 27 27 27 27 26 26 26 26 26 25 25 25 24 24 24 24 24 24 24 23 23 23 23 23 23 24 24 24 24 23 23 23 24 24 24 25 26 27 28 29 30 30 30 30 29 28 28 27 26 25 25 27 31 34 36 36 38
20 20 21 23 24 25 26 26 26 26 26 26 26 26 26 25 25 25 24 24 24 24 24 23 23 23 22 22 23 23 24 24 24 24 24 23 23 23 24 24 24 24 25 26 27 28 28 29 29 29 29 30 30 30 29 29 28 29 30 32 34 35
19 19 19 20 22 24 24 25 25 25 25 25 26 26 25 25 25 25 25 24 24 24 24 24 23 23 22 22 23 23 23 24 24 24 24 23 23 23 24 24 24 24 25 25 26 27 27 27 27 28 28 29 30 31 31 32 32 31 31 31 31 32
19 19 18 18 20 21 23 23 23 23 24 24 24 24 24 24 24 24 24 24 24 24 24 24 24 23 23 23 23 23 23 24 24 24 24 24 23 23 23 24 24 24 24 25 25 26 27 27 27 27 27 27 28 29 30 31 32 33 34 33 33 33
21 20 20 19 19 21 22 22 22 22 22 23 23 23 23 23 23 23 24 24 24 25 25 25 25 24 24 24 24 23 23 23 24 24 24 24 24 24 23 23 24 24 24 24 25 25 26 26 27 27 27 27 27 28 28 29 30 32 33 35 35 35
23 23 22 21 21 22 22 23 23 23 23 23 23 23 23 23 23 23 23 23 24 24 25 25 25 25 25 25 24 24 24 24 24 24 24 24 24 24 25 24 24 24 24 24 25 25 26 26 27 27 27 27 27 27 28 28 29 30 31 33 34 35
25 25 25 24 23 23 24 24 24 24 24 24 24 24 24 23 23 23 23 23 23 24 25 25 25 25 25 25 25 25 25 24 24 24 24 25 25 25 25 25 25 25 25 25 25 25 26 27 27 28 28 28 29 29 29 29 29 30 30 32 33 34
26 27 27 26 25 25 25 25 25 25 25 25 25 26 25 24 24 24 23 23 23 24 24 25 25 25 24 24 23 24 24 24 24 24 25 25 25 25 26 26 26 26 26 26 26 25 25 26 27 28 28 29 29 30 30 30 30 31 31 32 33 34
26 27 27 26 25 24 24 24 24 24 24 25 25 26 26 26 25 25 25 24 23 23 24 25 25 25 25 24 23 22 22 23 23 24 24 25 25 26 26 26 26 27 27 27 27 27 27 27 27 28 29 29 30 30 30 31 31 32 32 33 33 34

ECMWFFLT2_500_spd_027.txt.gz
Wind_Speed
25 22 20 19 18 18 18 18 18 17 17 16 15 15 15 16 16 16 16 16 17 18 19 19 20 21 21 21 20 20 19 18 18 18 18 18 18 18 17 16 17 18 16 16 18 19 20 23 23 23 21 18 15 13 13 13 15 17 20 21 22 22
24 21 19 18 17 17 17 17 17 17 17 16 16 16 16 16 15 15 15 16 17 17 18 18 19 20 20 20 19 18 18 17 17 17 18 18 19 20 18 17 17 18 17 17 19 20 20 23 24 24 22 19 16 14 14 14 15 17 19 21 22 22
24 21 19 18 17 17 17 17 17 17 16 16 16 16 15 14 14 14 14 15 16 16 17 17 17 18 18 18 17 16 16 16 16 16 18 19 20 21 20 18 18 19 19 18 20 21 21 22 25 25 24 21 18 16 15 14 15 16 18 20 21 22
23 20 18 17 17 16 17 16 16 16 16 16 16 16 15 14 14 13 14 15 15 15 15 16 16 17 17 17 16 16 15 15 15 16 18 19 20 21 22 20 19 20 20 18 20 23 23 22 25 27 25 23 20 18 15 15 15 16 18 20 21 22
22 20 18 17 17 17 17 16 16 16 16 16 16 16 15 14 14 14 14 15 15 15 15 16 16 16 17 17 17 16 16 16 16 16 17 19 20 20 22 21 20 21 21 19 19 22 25 24 25 27 26 24 22 19 17 16 16 16 17 19 20 21
22 20 18 17 17 17 17 17 16 17 17 17 16 16 16 15 14 14 15 15 15 15 16 16 17 17 17 18 18 17 16 16 16 16 17 18 20 20 21 21 20 22 21 19 18 20 24 25 25 28 28 26 24 21 18 17 16 16 16 18 19 21
21 20 18 18 17 17 17 17 17 17 17 17 17 17 16 15 15 15 16 16 16 16 17 17 18 18 18 18 18 17 17 17 17 17 18 19 20 20 21 21 20 22 23 19 19 20 23 24 25 29 30 28 26 23 20 19 17 16 16 17 18 20
20 19 18 18 17 17 17 17 18 18 18 18 17 16 16 16 16 16 17 17 17 18 18 19 19 19 18 18 17 17 18 18 18 17 18 19 19 20 20 20 19 21 24 22 20 21 23 23 25 29 30 29 27 24 22 20 19 18 16 17 18 19
19 18 18 18 17 17 18 18 18 18 18 18 17 17 17 17 17 17 18 18 19 19 20 21 21 20 19 19 19 19 20 18 17 17 19 19 19 19 20 21 21 21 23 24 21 22 24 23 24 30 31 30 29 26 24 22 21 19 18 18 18 19
17 17 17 17 18 18 19 19 19 19 18 18 18 18 18 18 17 18 19 19 20 21 22 23 23 22 22 21 22 21 20 18 15 14 15 18 18 19 20 21 22 21 22 24 23 22 24 23 23 29 32 31 30 28 25 24 23 21 20 19 19 19
16 16 17 18 18 19 19 19 19 19 19 19 19 19 19 19 18 19 20 21 22 22 24 25 25 24 23 23 24 21 19 19 17 14 13 15 17 18 20 21 22 22 22 24 24 22 23 24 23 27 32 33 31 30 28 26 25 23 22 21 20 20
16 17 17 18 19 19 19 19 20 20 20 19 19 20 20 19 19 20 21 22 23 24 26 27 27 26 24 23 23 22 20 19 19 18 17 16 16 17 18 20 21 23 23 23 25 24 22 24 24 26 31 34 33 31 30 29 27 25 24 23 22 21
18 18 18 19 19 20 20 20 20 21 20 20 20 21 21 20 20 21 22 23 23 26 27 27 27 26 24 23 23 22 21 20 20 19 19 18 17 17 17 18 20 22 24 24 25 26 24 24 25 26 28 32 35 34 32 31 29 27 26 25 23 22
19 19 19 19 20 21 21 21 21 22 21 21 21 21 21 21 21 22 23 24 24 27 27 25 26 25 24 24 24 23 21 21 21 20 19 19 18 19 18 17 18 20 23 25 26 26 26 26 26 27 28 30 33 35 34 33 32 30 29 27 25 23
20 20 20 21 21 22 22 22 22 22 22 22 22 22 22 22 22 22 24 24 25 27 27 25 24 24 24 24 24 24 22 21 21 20 20 19 19 19 20 20 18 18 20 24 27 27 27 27 27 28 29 29 31 34 36 35 34 33 31 29 27 26
22 22 22 22 23 23 24 24 24 24 24 23 23 23 23 23 23 23 24 25 25 27 28 26 25 25 25 24 24 25 24 22 21 22 22 21 20 21 21 20 19 19 20 22 25 28 28 28 28 28 29 30 30 32 35 37 36 35 33 31 30 29
24 24 24 24 24 25 25 25 25 25 25 25 24 24 24 24 24 25 25 25 25 26 27 27 26 26 26 25 26 26 26 24 23 23 24 23 22 23 23 21 20 20 20 20 21 25 28 29 29 29 29 30 31 32 34 36 37 37 35 34 33 31
25 25 25 25 25 26 26 26 26 26 26 26 26 25 25 25 25 26 26 26 26 26 26 27 27 27 27 27 27 27 27 26 25 25 25 25 24 24 23 22 22 21 20 20 20 22 26 28 29 30 31 31 32 33 34 35 36 38 38 37 36 34
24 24 25 25 25 26 26 26 26 26 26 26 26 26 26 26 26 26 26 27 26 26 27 27 27 27 27 28 28 28 28 27 26 26 26 26 25 24 23 23 23 22 21 20 20 21 23 26 29 30 31 32 33 33 34 34 35 38 40 40 39 37
22 23 23 23 23 24 25 25 26 26 26 26 26 26 26 26 26 26 27 27 27 27 27 27 28 28 28 28 28 28 28 27 26 27 27 27 26 26 25 24 24 24 22 20 21 20 20 24 28 29 30 32 34 34 35 35 35 36 40 42 41 39
23 23 22 22 22 23 24 25 25 26 26 26 26 26 26 26 26 26 27 27 28 27 27 28 28 28 28 28 27 27 27 26 25 26 27 27 27 27 26 25 24 24 23 21 20 20 18 21 25 26 27 30 33 35 37 37 36 36 39 42 43 41
25 24 23 23 23 23 24 24 25 25 25 25 26 26 26 26 26 26 27 27 28 27 27 28 28 28 28 27 27 27 26 25 24 25 27 27 26 27 27 26 24 23 23 22 21 20 18 18 23 26 25 28 31 33 37 40 39 38 39 40 42 43
26 25 23 23 23 23 23 23 24 24 24 24 25 25 25 26 26 26 27 27 27 27 27 27 28 28 27 27 26 26 26 25 23 24 25 26 25 26 27 27 27 26 24 24 22 21 20 18 22 24 22 23 26 28 33 39 42 41 40 40 42 43
26 24 23 23 23 22 22 22 23 23 23 23 24 24 25 25 25 26 26 26 26 26 26 27 27 27 27 26 25 25 25 25 24 23 24 25 24 25 26 26 28 29 27 26 23 21 20 19 20 22 21 19 19 21 24 32 41 44 42 41 41 42
26 24 24 24 23 22 21 21 21 21 22 22 23 24 24 25 25 25 25 25 25 25 25 26 26 26 26 25 25 24 24 24 24 23 23 24 24 24 25 25 27 29 28 28 26 23 21 20 19 20 20 19 17 18 19 23 31 39 41 42 42 42
26 25 25 24 23 22 21 20 20 20 21 22 22 23 24 24 24 24 24 24 24 24 24 25 25 25 25 24 24 24 24 24 24 23 23 23 23 23 24 24 25 28 28 29 29 28 25 24 22 19 19 19 18 18 19 21 22 27 34 40 43 43
26 26 25 24 23 22 21 20 20 20 21 21 22 22 23 23 24 24 24 24 24 24 24 24 24 24 24 24 24 23 23 23 23 23 23 23 23 22 23 23 24 25 27 28 30 30 28 27 27 24 22 21 20 19 19 21 21 22 26 34 40 44
26 25 25 24 23 22 21 20 21 21 21 21 22 22 22 22 23 23 23 24 24 24 24 24 23 23 23 24 23 23 23 23 23 23 23 22 22 22 22 22 23 24 24 26 28 29 28 28 29 28 27 25 24 23 20 20 22 23 24 26 32 37
24 23 23 23 22 22 20 20 21 21 21 22 22 22 22 22 22 22 23 23 23 23 23 23 22 22 22 22 23 23 22 23 23 23 22 22 21 21 21 22 22 23 23 24 25 27 27 28 28 29 29 28 27 26 25 22 22 23 25 26 27 30
23 22 22 22 21 21 20 20 20 21 21 21 22 21 21 21 21 22 22 22 22 22 22 22 21 21 21 21 21 21 22 22 22 22 22 22 21 21 21 21 22 22 23 23 24 25 25 26 27 27 28 28 28 28 27 26 25 24 24 25 27 30
22 21 21 21 20 20 20 20 20 20 21 21 21 21 20 20 20 21 21 21 22 22 22 21 20 20 20 20 20 20 20 21 21 22 22 21 21 21 21 21 21 22 22 23 23 24 24 25 25 26 26 27 27 27 28 28 28 27 26 26 26 28
23 21 20 20 20 20 20 20 19 19 20 20 20 20 19 19 19 19 20 20 21 21 21 20 20 20 19 19 19 19 19 20 20 20 21 21 20 20 20 20 20 21 21 22 22 23 24 24 24 25 25 26 26 26 27 28 29 29 29 29 29 29
25 23 21 21 21 21 20 20 19 19 20 20 19 19 19 18 18 18 18 19 20 20 20 20 19 19 19 18 18 18 19 19 19 20 20 20 20 20 20 20 20 20 20 21 21 22 22 23 23 24 25 25 25 26 26 27 28 29 30 30 31 31
28 26 23 22 21 22 22 21 21 20 20 21 20 20 19 18 17 17 17 18 18 19 19 19 19 18 18 18 18 18 18 19 19 20 20 20 20 19 19 19 19 19 19 20 20 21 21 22 22 23 24 24 25 25 26 26 27 28 29 30 30 31
29 27 25 23 22 23 23 24 24 23 22 22 22 22 21 20 19 18 18 18 17 18 18 18 18 18 17 17 17 17 18 18 18 19 19 20 20 20 19 19 19 19 19 19 20 20 21 22 22 22 23 24 24 25 25 26 27 27 28 28 29 30
28 27 26 25 24 24 25 26 26 26 25 24 24 24 23 22 21 21 20 19 19 19 18 18 18 18 18 17 17 17 17 18 18 18 18 19 19 19 19 19 19 19 19 20 20 20 21 22 22 23 23 24 25 25 25 26 27 27 28 29 29 29
29 28 28 28 26 25 25 26 27 26 25 24 24 23 23 22 22 22 22 21 21 21 20 20 19 19 18 18 17 17 17 18 18 18 18 18 18 18 18 18 19 19 19 20 20 20 21 21 22 23 23 24 25 25 26 27 27 27 28 29 30 30

ECMWFFLT2_500_spd_030.txt.gz
Wind_Speed
24 25 25 25 23 23 22 21 20 19 18 19 19 18 18 18 19 19 19 19 18 19 20 20 20 20 20 19 19 20 20 21 21 21 21 19 18 18 18 19 21 21 21 21 21 21 21 21 22 24 25 24 22 20 18 17 18 20 22 23 24 24
25 25 25 24 23 23 22 22 21 20 19 19 19 19 18 18 19 18 18 19 18 18 18 19 19 18 18 18 18 17 18 18 19 20 20 19 19 19 19 19 21 22 22 22 22 21 22 23 23 25 27 26 24 22 20 18 18 20 22 23 24 25
26 26 25 24 23 23 22 22 22 21 20 20 20 19 18 19 19 18 18 18 18 17 16 18 20 18 17 18 16 15 15 16 16 18 18 18 19 19 19 20 21 23 23 23 23 22 22 23 24 25 28 28 26 24 21 19 19 20 21 23 25 25
27 27 25 23 23 23 22 22 22 21 20 21 20 19 18 19 19 17 17 17 18 18 16 18 20 18 17 17 16 14 14 14 15 16 17 17 19 19 19 20 21 22 23 23 23 23 22 23 24 25 27 29 28 25 22 21 20 20 21 23 24 25
28 28 26 24 22 23 23 23 23 21 20 21 21 19 19 19 18 17 17 18 19 18 17 19 20 19 18 17 16 15 14 14 14 15 16 17 19 19 19 20 22 22 23 23 24 24 23 23 25 25 26 29 29 26 24 22 21 20 21 22 24 26
27 27 26 24 22 23 23 23 23 21 20 21 21 20 20 19 18 17 17 19 20 18 18 18 19 19 18 17 16 16 15 15 15 15 16 18 18 18 19 20 22 23 23 24 26 25 24 24 25 26 26 29 30 28 25 23 21 21 21 21 23 25
26 25 25 23 22 23 23 23 23 22 21 21 21 21 20 19 19 18 18 20 21 19 18 18 18 19 18 17 17 16 15 16 16 16 17 18 17 18 19 20 22 23 23 24 26 27 25 24 25 27 27 28 31 30 27 24 23 22 21 21 22 24
24 23 23 22 22 23 23 23 22 22 22 22 22 21 20 19 19 20 20 21 21 18 17 18 19 20 19 19 18 17 17 17 16 17 17 18 18 19 19 20 21 22 24 25 26 28 27 25 25 27 29 28 31 32 29 26 24 22 21 21 22 23
23 22 21 21 22 23 22 23 23 22 22 22 22 20 20 20 19 21 22 21 20 18 18 19 20 21 21 20 20 19 19 18 17 17 19 19 19 20 20 19 20 22 24 25 26 27 27 26 25 26 29 29 31 33 31 28 26 23 22 22 22 23
22 21 21 21 21 22 22 22 23 22 22 22 22 21 21 20 20 21 22 21 19 19 20 21 22 23 22 22 21 21 20 20 19 19 19 19 19 19 20 20 20 21 23 25 26 26 27 27 26 26 28 30 31 33 32 30 28 25 23 23 23 22
20 19 19 19 20 21 22 22 22 22 22 22 22 22 21 21 20 21 22 21 20 21 22 23 24 24 24 23 23 22 21 21 21 20 20 19 18 16 17 19 20 21 23 25 26 27 27 26 27 27 28 30 32 33 33 32 30 27 25 24 23 22
20 19 18 18 19 20 21 21 22 22 23 23 23 23 22 22 21 21 22 22 22 23 23 24 25 25 25 25 24 23 22 21 21 20 19 20 19 17 16 17 19 20 22 25 26 27 27 25 26 27 29 30 31 33 34 33 32 30 27 26 24 23
20 20 19 19 19 20 21 22 22 23 23 23 23 23 23 23 22 22 23 23 24 24 25 26 25 25 26 25 24 22 22 21 21 20 19 19 19 18 17 17 18 19 20 23 26 27 27 26 25 26 28 30 30 32 34 34 34 32 30 28 26 25
21 21 21 20 20 21 22 22 23 23 23 23 23 23 23 23 23 23 24 24 25 25 25 26 26 25 25 25 23 22 21 21 21 21 21 20 19 19 19 18 18 19 18 20 24 26 26 26 25 25 27 29 30 31 33 34 35 34 33 30 28 27
23 22 21 21 21 22 22 23 23 23 24 24 24 24 24 24 24 24 25 25 26 26 26 26 26 25 25 24 23 22 21 20 20 21 22 21 21 20 20 19 19 19 18 18 20 24 25 25 25 24 25 28 30 30 32 34 36 36 34 32 31 29
24 24 22 21 22 22 23 23 23 24 24 24 24 25 25 25 25 25 26 26 26 26 27 27 26 26 25 25 23 22 21 21 21 22 22 22 22 21 21 20 19 19 19 19 19 20 24 25 25 25 26 28 30 30 31 33 35 37 36 34 33 32
25 25 24 23 22 23 23 24 24 24 25 25 25 26 26 26 27 27 27 27 27 27 28 27 26 26 26 26 24 22 22 23 23 23 23 23 23 23 22 22 21 20 20 20 20 19 20 24 27 28 28 29 30 31 32 33 34 37 37 36 36 35
24 25 26 25 25 24 25 25 25 25 26 27 27 28 28 28 29 29 29 28 28 28 29 28 27 26 26 26 25 24 23 24 24 24 24 24 24 24 24 23 22 22 22 21 21 21 20 22 26 29 31 31 31 32 34 35 34 35 36 38 39 37
24 25 26 26 27 27 27 27 27 27 28 29 29 29 29 30 30 30 30 29 29 29 29 29 28 27 25 25 26 26 24 24 25 25 25 25 25 25 24 24 24 23 23 22 22 22 22 22 24 27 31 32 31 32 34 36 37 36 36 38 40 39
23 24 24 25 26 27 28 29 29 29 29 30 30 30 30 30 30 30 30 30 30 29 29 30 29 28 26 26 26 27 26 25 25 25 25 25 25 26 26 25 25 25 24 23 23 23 23 23 23 24 27 30 32 34 35 35 36 36 36 38 39 39
24 24 24 24 24 25 26 27 28 29 29 30 30 30 30 30 30 30 30 30 30 29 29 30 29 28 27 27 26 27 27 26 25 25 25 25 25 26 27 26 26 26 26 25 24 24 24 23 23 23 24 28 31 34 35 35 35 35 37 38 38 38
24 25 24 24 23 24 25 25 27 28 28 29 30 30 30 30 30 30 30 30 29 29 29 29 29 28 27 27 26 26 26 25 25 24 24 25 25 26 27 26 26 26 27 26 24 25 25 24 23 22 23 25 29 34 35 35 35 36 37 38 38 39
24 24 25 25 24 24 24 25 26 27 28 28 29 29 30 29 30 30 29 29 29 29 29 28 28 27 27 26 26 25 25 25 24 24 24 24 25 25 26 25 25 26 26 26 26 25 24 23 22 22 23 23 26 31 33 34 34 35 37 40 39 39
23 24 24 25 25 25 24 24 25 26 26 27 27 28 29 29 28 28 28 28 27 27 27 27 27 26 26 25 25 25 24 24 24 24 24 24 25 25 25 25 24 24 25 25 26 27 26 25 23 21 21 22 24 29 31 31 32 34 37 40 41 41
24 23 23 24 24 24 24 24 24 25 25 25 26 26 27 27 27 27 26 26 26 26 25 26 26 25 25 24 24 24 24 23 23 23 23 24 24 25 25 25 24 24 24 25 26 28 28 28 25 23 21 20 22 26 28 28 28 33 37 39 42 43
24 24 23 23 23 23 23 23 23 24 24 24 24 25 25 25 24 24 24 24 24 24 24 24 24 24 24 24 24 23 23 23 23 23 23 23 24 24 25 25 24 24 24 26 27 28 28 28 27 26 23 21 20 22 25 25 22 22 29 34 39 45
25 24 23 22 22 21 22 22 23 23 23 23 23 23 23 22 22 22 21 22 22 22 23 23 23 23 23 23 23 23 22 22 22 22 22 23 23 23 24 24 24 24 24 26 26 27 27 29 29 28 27 25 23 22 21 22 19 15 19 24 32 41
26 24 22 21 21 20 20 21 21 22 22 22 22 22 21 21 20 20 20 20 21 21 22 22 23 23 23 23 22 22 21 21 21 22 22 22 23 23 23 24 24 24 24 25 25 26 26 28 29 30 30 29 27 26 24 23 21 18 16 17 22 32
25 23 21 20 20 19 19 20 20 21 21 21 21 21 20 20 19 19 20 20 20 21 21 22 22 22 22 22 21 21 21 20 20 21 21 22 22 23 23 23 23 23 23 24 24 25 25 26 28 29 30 31 29 29 28 26 25 23 20 17 18 25
22 21 20 20 20 19 19 19 20 20 20 20 20 20 20 20 20 20 20 20 20 20 21 21 21 21 21 21 21 20 20 19 19 19 20 21 21 22 22 22 22 23 23 23 23 24 24 24 26 27 28 29 29 29 29 29 27 27 26 24 21 22
20 19 19 20 20 20 19 19 19 19 19 19 19 20 20 20 20 20 20 20 20 20 20 20 21 21 21 21 20 20 19 19 19 19 19 20 20 21 21 21 21 22 22 22 22 23 23 23 23 24 25 26 27 27 28 28 28 28 28 28 26 24
20 19 20 20 21 21 21 20 20 20 20 20 20 19 20 20 20 20 20 20 20 19 19 19 20 20 20 20 20 19 19 18 18 19 19 19 19 20 20 20 20 20 21 21 21 22 22 22 22 23 23 24 24 25 25 26 27 27 27 27 28 27
20 20 21 22 21 21 21 21 21 20 20 20 20 20 19 20 20 20 19 19 19 19 19 19 19 19 19 19 19 19 19 18 18 18 18 19 19 19 19 19 20 19 19 20 20 21 21 21 22 22 22 22 22 23 23 24 24 25 26 26 27 27
21 21 22 23 23 22 21 20 20 20 20 20 20 20 20 19 19 20 19 19 19 19 18 18 18 18 18 18 19 19 18 18 18 18 18 18 18 18 18 18 19 19 19 19 19 20 20 21 21 21 21 21 21 21 22 22 22 23 23 24 25 26
23 23 23 23 24 24 23 21 20 19 19 19 20 20 20 20 20 20 20 19 19 19 19 18 18 18 18 18 18 18 18 18 17 17 17 18 18 18 18 18 18 18 18 18 18 19 19 20 20 20 21 21 21 21 21 21 21 21 22 22 22 23
24 24 25 24 25 25 25 24 23 21 21 21 20 20 20 20 20 20 20 20 20 20 20 19 19 18 18 18 18 18 18 17 17 17 17 17 17 17 17 17 17 18 18 18 18 18 18 19 19 20 20 20 20 21 21 21 21 21 21 21 21 21
25 25 25 26 25 25 26 26 26 25 23 22 22 21 20 19 19 19 19 19 19 19 20 20 20 19 19 18 18 18 18 18 17 17 17 17 17 16 17 17 17 17 18 18 18 17 18 18 18 19 19 19 19 20 20 21 21 21 21 21 21 21

ECMWFFLT2_500_spd_033.txt.gz
Wind_Speed
28 27 25 25 25 25 24 23 24 24 23 22 23 23 23 24 24 24 24 25 25 24 24 22 21 21 19 19 18 18 19 19 20 20 20 20 20 21 22 22 22 20 19 20 21 21 22 21 22 23 23 25 25 25 24 23 21 21 23 24 24 25
28 27 26 26 26 26 25 23 23 23 22 22 23 22 22 23 24 24 25 25 25 25 24 22 21 20 19 19 18 18 19 19 20 20 21 22 22 22 23 24 24 23 21 21 22 22 23 22 22 23 24 25 26 27 27 25 23 22 23 24 24 25
28 27 28 27 26 26 26 24 23 23 23 23 23 22 22 23 23 24 25 24 25 24 24 23 20 19 18 17 16 16 17 17 18 19 20 21 22 23 24 25 25 24 24 23 22 23 24 23 23 24 24 26 27 29 28 27 24 23 23 23 24 25
27 28 28 27 27 26 26 25 24 23 23 23 23 23 22 23 23 24 25 24 23 21 19 20 20 18 15 14 14 14 16 16 16 16 17 19 20 21 23 24 24 25 25 25 24 25 25 24 24 24 24 26 28 30 29 28 26 24 23 23 24 25
30 29 28 28 28 27 27 26 25 24 24 24 23 23 22 22 23 25 25 23 23 20 17 18 18 16 12 12 13 14 15 15 15 15 15 16 17 19 21 24 25 25 26 26 26 26 26 25 24 24 24 25 28 30 30 29 27 25 24 22 24 26
30 30 29 29 29 28 28 27 26 25 25 24 23 23 22 23 25 25 24 22 23 21 18 17 17 15 13 13 13 14 14 14 14 15 14 14 16 17 20 23 25 26 26 27 27 27 26 24 24 24 25 24 26 30 30 30 29 28 25 22 25 27
28 29 29 29 28 28 27 27 26 26 26 25 24 23 22 24 26 25 23 22 21 20 19 19 17 15 14 13 13 13 13 14 14 14 14 14 15 16 18 21 24 26 27 27 27 28 27 25 24 24 25 25 26 29 30 32 31 29 26 23 24 27
26 28 29 29 28 26 26 27 26 27 27 26 24 24 24 24 24 23 22 21 19 19 21 20 18 15 14 15 13 13 13 14 15 14 15 14 14 16 17 19 22 25 27 27 27 27 28 28 26 25 25 26 26 28 31 33 32 30 26 24 25 27
25 26 27 29 29 26 24 26 27 27 27 26 25 23 23 23 21 21 20 19 19 20 20 19 19 17 17 17 14 14 13 14 16 16 15 15 16 16 16 18 19 22 24 25 26 27 28 29 28 26 25 26 27 29 31 32 33 31 28 26 26 26
25 25 25 27 29 28 25 25 26 26 26 26 25 23 23 23 20 19 19 18 19 21 20 19 19 18 18 18 16 16 15 15 17 17 17 17 17 16 15 16 16 18 21 22 25 26 27 29 28 26 26 26 28 30 31 31 33 33 31 29 27 26
25 25 25 26 27 28 26 25 25 25 25 25 24 23 24 24 22 20 19 19 20 21 19 18 19 18 18 19 17 18 17 17 19 19 19 20 19 17 16 17 15 16 19 21 24 25 27 28 28 27 26 27 28 31 32 32 33 34 33 31 28 27
26 25 24 24 24 24 23 23 23 23 24 25 25 24 23 24 23 21 20 20 21 21 19 18 19 19 19 20 19 19 19 19 20 19 20 21 21 19 18 17 16 16 18 21 23 25 27 28 28 27 26 26 28 30 32 32 33 35 35 33 30 28
25 24 23 23 23 22 21 21 21 22 22 24 25 25 24 24 24 24 23 22 22 21 20 20 21 21 21 21 21 21 21 21 20 20 21 21 21 20 19 18 17 16 17 20 23 25 26 28 28 28 28 27 27 29 31 33 34 36 36 35 32 30
23 22 22 22 22 22 21 21 21 21 22 23 25 26 26 25 25 26 25 24 23 22 21 21 22 23 22 22 22 22 22 22 21 21 21 21 21 21 20 19 18 17 17 19 21 23 25 28 28 28 28 27 27 28 30 32 34 36 38 36 35 32
23 22 22 22 22 21 22 22 22 23 23 23 25 26 27 26 26 26 25 25 24 23 22 23 23 24 23 22 21 22 23 22 21 22 21 21 22 22 21 20 19 18 17 18 19 20 22 25 28 28 28 28 27 27 28 30 33 37 39 38 37 35
23 23 23 23 23 22 22 22 23 23 23 24 25 27 27 27 26 25 26 25 24 24 24 24 25 25 25 23 22 23 23 22 22 23 22 21 23 22 21 20 20 20 19 18 18 19 20 21 25 27 28 28 28 28 27 27 30 36 40 40 39 36
23 23 24 24 24 23 23 23 23 24 24 24 25 26 27 27 26 26 26 26 25 25 25 26 26 26 26 25 25 25 24 23 22 24 23 22 23 23 20 20 20 21 20 19 19 19 19 20 21 23 27 28 28 28 27 26 27 32 38 40 39 37
24 23 24 24 25 25 25 24 24 24 24 24 25 26 26 26 27 27 27 27 26 26 27 28 28 27 27 26 26 26 25 24 24 25 24 23 23 23 23 23 22 22 21 20 20 19 20 21 20 20 23 26 28 28 27 26 26 29 34 38 39 38
25 24 24 24 25 26 27 27 26 26 25 25 25 26 27 27 28 29 28 28 28 28 29 30 29 29 28 28 27 27 26 26 25 26 25 23 23 24 25 25 24 23 22 21 21 21 21 21 21 21 21 23 26 28 29 28 28 29 31 34 37 38
25 24 24 25 26 26 27 28 28 27 27 27 27 28 28 29 29 30 30 30 31 31 31 31 30 30 29 29 28 27 27 27 27 26 25 24 24 25 26 25 24 23 23 22 22 22 22 21 22 22 22 22 25 27 29 30 31 31 32 33 35 37
25 25 25 25 26 27 26 27 27 28 28 28 29 29 30 30 31 31 32 32 32 32 32 31 30 30 29 29 28 28 27 27 27 26 26 25 25 26 26 26 25 23 23 24 24 24 24 23 22 23 23 23 25 26 28 31 33 34 35 35 35 35
26 25 25 25 26 27 27 26 26 27 28 28 29 29 30 30 31 32 32 32 32 31 31 31 30 30 29 29 28 28 28 27 27 27 25 25 25 26 26 26 26 24 24 25 26 26 25 22 22 24 24 24 25 25 27 30 31 33 37 38 36 35
25 25 24 24 25 26 27 26 25 25 26 27 28 28 29 30 30 31 31 31 31 31 31 30 30 29 29 28 28 28 27 27 27 27 25 24 24 25 25 26 26 24 25 26 26 26 25 24 25 25 24 24 25 25 26 27 26 27 32 35 36 36
26 24 23 23 23 25 26 26 25 25 25 25 26 27 28 28 28 29 30 30 30 30 30 30 29 29 28 28 27 27 27 26 26 26 25 25 24 25 25 26 27 25 24 25 26 26 26 26 27 27 25 24 24 22 23 25 25 24 27 31 34 35
26 25 24 23 23 23 25 25 26 26 25 25 25 25 26 26 27 27 28 28 29 29 29 29 29 28 28 27 26 26 26 25 25 25 25 25 25 25 25 26 27 26 26 26 25 25 26 27 27 27 26 26 24 22 21 23 24 24 24 30 33 33
28 26 26 25 23 23 24 24 25 25 25 24 24 25 25 25 26 26 26 27 27 27 27 27 27 26 26 26 25 25 25 25 24 24 24 24 24 25 25 26 26 27 27 26 25 25 25 25 26 26 26 26 26 26 25 23 23 22 21 27 31 31
30 28 27 26 25 24 23 23 24 24 24 24 24 24 24 25 26 26 26 26 26 25 25 25 24 24 24 24 24 24 24 24 24 24 24 24 24 24 25 26 26 27 27 26 26 26 26 25 26 26 26 26 25 26 28 25 23 22 19 22 26 28
31 30 30 28 26 24 23 22 22 22 22 22 23 23 24 24 25 26 26 25 25 24 24 23 23 23 23 23 23 23 23 23 23 23 23 23 24 24 25 26 26 26 26 26 25 25 26 26 26 27 28 28 26 27 29 26 23 22 19 18 20 22
32 32 32 30 27 24 22 20 20 20 20 20 21 21 22 23 24 25 25 24 24 23 23 23 22 22 22 22 22 22 22 22 23 23 23 23 23 24 24 25 26 26 26 25 24 24 25 25 25 26 28 28 28 29 30 28 26 25 24 21 20 19
32 32 32 29 25 21 19 18 17 18 18 18 19 19 20 21 22 23 23 22 22 22 22 22 22 22 22 22 21 21 21 21 22 22 22 23 23 23 24 24 25 25 25 24 24 24 25 25 24 25 26 27 26 28 29 29 29 30 29 27 25 24
32 32 31 27 22 19 17 16 16 16 17 17 18 18 18 19 20 21 21 21 21 21 21 21 21 21 21 21 21 21 21 21 22 21 22 22 22 23 23 23 24 24 24 24 23 23 24 24 24 23 25 25 24 25 26 27 27 29 30 29 28 27
32 30 27 23 19 17 16 15 15 16 17 17 17 17 18 18 19 20 20 20 20 20 20 20 20 21 21 21 21 20 21 21 21 21 21 21 22 22 22 23 23 24 24 23 22 22 22 23 23 23 23 24 24 23 24 24 24 25 27 27 27 27
31 29 25 20 18 17 16 16 16 17 18 17 17 17 18 18 18 19 19 19 19 19 19 19 19 19 20 20 20 19 19 20 20 21 21 21 21 21 22 22 22 23 23 23 22 21 21 22 22 22 22 23 24 23 22 22 22 23 23 24 24 24
30 28 24 20 19 18 17 17 17 18 19 18 18 18 18 18 18 18 19 19 19 19 19 18 18 18 18 18 19 19 18 18 19 19 20 21 21 21 22 22 22 22 23 22 22 21 20 21 21 21 21 21 22 22 22 21 21 21 21 22 22 22
29 27 23 21 20 19 18 18 19 20 20 20 19 18 18 19 18 18 19 19 19 19 19 18 18 18 18 18 18 18 18 17 17 18 19 20 20 21 21 22 22 22 22 22 22 21 20 20 20 20 20 19 20 21 20 20 19 19 19 20 20 20
29 26 23 22 21 21 20 20 21 22 22 21 20 20 19 19 19 20 20 20 20 20 20 19 19 18 18 18 17 17 17 17 17 17 17 18 19 20 21 22 22 22 22 22 22 21 20 19 19 19 19 19 18 19 19 19 18 18 18 18 18 18
29 26 24 23 23 22 22 22 23 24 24 23 23 22 21 21 21 21 22 22 21 21 21 20 19 19 18 18 18 18 18 17 17 17 17 17 18 19 20 21 21 22 22 22 22 22 21 20 19 19 19 19 18 18 18 18 18 18 17 17 17 17

ECMWFFLT2_500_spd_036.txt.gz
Wind_Speed
22 22 22 22 22 22 22 22 23 24 25 25 25 27 28 30 31 29 26 26 26 25 24 24 21 19 17 17 17 18 18 18 18 19 20 20 21 21 21 20 20 19 18 18 17 18 19 20 20 20 21 22 23 23 23 24 23 20 17 18 25 28
22 21 22 23 22 22 22 23 24 25 25 25 25 26 27 29 27 24 23 24 24 25 24 22 20 19 18 18 19 19 20 20 20 21 22 22 23 23 23 22 22 22 21 19 19 19 19 20 21 21 21 22 23 24 24 25 24 22 18 18 24 28
22 23 24 24 23 23 23 24 26 26 25 24 24 25 27 27 23 21 22 23 22 22 23 22 21 20 19 19 19 20 21 21 22 23 23 24 25 25 25 24 24 24 23 22 21 21 21 21 21 22 22 23 24 24 25 26 26 25 20 17 22 27
24 25 25 25 24 24 24 25 26 26 25 25 24 25 27 26 24 23 23 22 20 19 19 20 20 20 19 18 18 19 20 22 22 23 23 24 24 25 25 25 25 25 25 24 23 23 22 21 21 22 23 24 24 25 26 27 27 27 22 18 20 25
25 26 27 26 25 24 25 25 26 25 25 26 24 25 26 25 24 24 24 23 21 19 17 16 17 17 17 16 17 17 18 19 20 21 22 22 21 22 22 23 23 24 24 25 25 25 24 23 22 23 24 24 25 24 26 28 28 28 24 21 21 23
26 27 27 27 26 25 25 25 25 25 26 25 24 26 26 25 24 24 24 23 21 21 19 16 16 17 16 15 14 14 16 16 17 19 19 18 18 18 19 20 22 22 23 24 25 25 25 25 24 24 24 24 25 24 26 27 28 28 25 25 24 24
25 26 26 26 26 27 26 25 24 24 25 25 26 27 26 25 24 24 24 23 21 20 19 17 16 17 17 15 13 13 15 15 15 16 16 16 16 17 18 19 21 22 23 24 25 25 25 25 25 24 24 24 25 25 26 26 28 28 26 27 28 26
23 25 25 26 26 26 25 24 23 23 24 26 27 27 25 24 24 24 23 21 19 18 18 17 16 16 17 16 15 14 14 13 14 14 14 15 16 16 17 18 20 22 23 24 24 25 25 25 25 25 24 23 24 25 26 26 26 27 27 28 30 28
22 24 25 26 27 26 24 23 23 23 24 25 26 27 26 25 24 24 22 19 16 16 16 16 15 15 15 16 16 15 13 12 13 14 15 15 16 16 16 17 18 20 22 23 24 25 26 25 25 25 25 24 24 25 26 26 26 27 27 30 32 31
23 24 26 27 27 27 25 23 23 22 22 22 23 24 24 23 23 23 22 18 14 14 14 14 14 14 15 15 15 15 14 13 14 16 16 16 17 17 17 17 18 19 19 20 21 24 25 25 25 25 25 25 26 26 26 27 27 28 29 29 32 33
24 26 27 27 27 28 27 26 23 21 20 20 20 21 22 21 21 21 22 20 16 14 14 14 14 14 15 14 14 15 15 15 16 17 16 16 17 18 19 18 18 18 17 18 19 21 24 25 25 24 25 25 26 27 27 27 28 30 31 29 31 33
24 26 27 27 27 27 27 26 23 21 19 18 18 20 21 20 19 19 21 21 17 15 15 15 14 14 14 14 15 16 16 16 17 18 17 17 18 19 19 18 17 16 16 17 17 19 22 23 24 24 24 25 26 27 28 28 29 31 33 30 30 33
25 26 27 27 26 26 25 24 22 21 20 18 18 19 20 19 19 19 19 19 17 16 16 16 15 14 14 15 16 17 18 18 18 19 19 18 18 17 16 15 15 14 13 15 16 17 19 22 22 23 24 25 26 27 28 29 30 31 32 30 30 32
26 27 27 27 26 25 24 23 22 21 21 19 18 19 20 20 19 18 18 19 19 18 17 17 16 15 14 15 17 18 18 19 19 19 20 19 17 15 13 13 14 14 14 14 16 17 18 20 22 22 23 24 25 27 28 29 30 31 31 31 31 32
27 28 28 27 26 25 24 23 23 22 22 21 19 19 21 21 19 18 18 19 19 19 18 17 16 15 15 16 18 19 20 20 19 19 18 17 16 16 17 17 15 14 15 15 17 17 17 19 21 22 22 23 25 26 28 29 30 30 30 32 33 32
28 28 28 27 25 24 24 23 23 23 23 22 21 20 21 21 20 19 19 19 20 19 18 18 17 16 17 17 19 21 22 22 21 20 19 17 16 17 18 19 16 15 16 17 17 18 18 19 19 21 21 21 24 26 27 29 30 29 30 31 32 32
27 26 26 24 23 23 24 24 24 23 23 23 23 23 22 22 21 21 20 19 19 19 19 20 19 19 19 19 20 22 23 24 22 22 21 20 19 18 18 19 18 17 18 18 18 19 20 20 20 20 20 20 22 25 26 28 29 29 29 30 30 31
24 23 22 21 21 22 23 24 24 24 24 24 24 24 24 23 23 22 22 21 20 19 20 20 21 21 22 22 22 23 24 25 24 22 22 22 20 19 20 20 19 18 19 20 20 21 21 21 22 22 19 19 21 23 24 26 27 28 29 30 29 30
22 21 19 19 20 21 23 23 24 24 24 24 25 24 24 24 24 24 23 23 23 22 21 22 22 23 24 24 25 25 26 27 26 24 24 22 20 20 21 20 19 19 20 20 21 22 22 23 24 22 19 20 20 20 20 22 25 27 30 31 30 31
21 20 19 19 20 21 23 24 24 24 24 24 25 25 25 25 25 25 24 25 25 24 24 24 25 25 25 26 26 26 27 27 27 26 25 23 21 21 21 21 21 21 20 21 22 22 23 23 24 23 21 21 20 19 19 19 22 26 30 33 31 30
21 20 19 19 20 21 22 23 24 24 25 25 25 25 25 25 25 25 25 25 26 26 26 26 27 27 27 27 27 27 27 27 27 26 26 24 23 22 22 23 23 22 22 23 24 24 24 24 24 24 23 22 22 21 21 20 22 24 27 29 31 31
21 20 19 19 19 20 21 22 23 23 24 25 25 25 25 25 25 25 25 25 26 26 27 27 28 28 28 28 28 28 28 27 27 27 26 25 25 24 24 24 23 24 24 24 25 25 25 25 25 25 24 24 23 22 22 22 23 25 25 25 27 30
20 20 19 19 19 19 20 20 21 22 23 23 24 24 24 25 25 25 25 25 26 26 27 27 28 28 28 28 28 28 28 27 27 27 26 26 26 25 25 24 24 25 25 24 25 25 25 25 26 24 24 25 23 22 23 23 25 26 26 26 27 28
20 21 20 19 19 20 20 20 20 21 21 22 23 23 24 24 24 25 25 25 25 26 26 27 27 28 28 28 28 28 27 27 27 27 26 25 25 25 25 24 24 25 25 25 24 24 24 25 24 23 24 25 24 24 24 25 25 25 25 25 26 27
21 22 21 20 20 20 20 20 20 20 21 22 22 22 23 24 24 24 25 25 25 25 25 26 26 27 28 28 28 27 27 27 26 26 26 25 25 25 25 24 24 24 25 26 25 25 24 23 22 21 23 25 24 25 25 25 26 25 23 22 22 23
23 23 23 21 21 21 21 21 20 20 21 21 22 22 23 23 24 24 24 24 24 24 25 25 25 26 26 27 27 27 27 27 26 26 25 25 25 25 25 24 23 23 25 26 25 25 24 23 22 22 24 24 24 25 26 25 26 25 24 23 21 19
25 25 25 23 22 22 22 21 21 20 21 21 21 22 22 23 23 24 24 23 23 24 24 24 24 24 25 25 25 25 26 26 26 25 25 25 24 24 24 24 23 23 24 25 25 24 24 24 23 22 23 24 24 25 25 24 23 23 24 24 22 19
27 28 28 25 24 24 23 22 22 21 21 21 21 21 21 22 22 22 22 22 22 23 23 24 24 24 23 23 24 24 24 24 24 24 24 24 23 23 23 23 23 23 23 24 25 24 23 23 23 22 23 25 25 26 26 24 23 23 22 20 20 19
29 30 30 28 25 25 25 24 24 23 22 21 21 21 21 21 21 21 21 21 21 22 22 22 22 22 22 22 22 22 23 23 23 23 23 23 23 23 22 22 23 23 23 24 25 25 23 22 22 22 23 24 25 26 27 27 26 26 25 24 22 22
31 31 32 30 27 27 27 26 26 24 22 21 21 21 20 20 19 19 19 20 20 20 21 21 21 21 21 21 21 21 21 22 22 22 22 22 22 22 22 22 22 22 23 23 24 25 24 22 21 21 22 23 24 25 25 26 26 27 28 28 27 26
32 32 34 33 29 28 28 28 27 25 22 21 21 20 20 19 19 19 19 18 19 19 19 19 19 19 19 19 20 20 20 20 21 21 21 21 21 22 22 22 22 22 22 23 23 24 25 23 21 20 21 22 23 23 23 23 24 25 26 26 27 27
33 33 35 35 32 30 29 29 27 25 22 20 20 19 18 19 19 19 19 18 18 18 18 18 18 18 18 18 19 19 19 19 20 20 20 20 20 21 21 21 22 22 22 22 23 23 24 23 22 20 20 21 21 22 22 21 22 22 23 23 24 24
35 34 36 36 34 31 30 29 27 25 22 20 19 18 18 18 18 19 19 18 18 18 18 18 17 17 17 17 18 18 18 19 19 19 19 20 20 20 20 20 21 21 22 22 22 22 22 22 21 20 19 20 20 21 21 20 20 20 21 21 21 21
37 36 36 37 36 33 31 29 26 24 22 20 19 18 17 17 18 18 18 19 19 18 18 17 17 17 16 16 16 17 17 17 18 18 18 19 19 19 19 19 19 20 21 21 21 21 21 21 20 19 19 19 19 19 19 19 18 18 19 19 19 19
40 38 37 38 37 33 31 28 25 24 22 21 20 18 17 18 18 17 18 19 18 18 18 18 17 17 16 16 16 16 16 16 17 17 17 18 18 18 18 18 18 19 19 20 20 20 20 20 19 19 18 18 18 17 17 18 17 16 16 17 17 17
42 40 38 39 37 33 29 27 25 24 22 21 20 19 18 19 19 18 19 19 19 18 19 19 18 18 17 17 17 17 16 16 16 16 17 17 17 18 18 18 18 18 18 19 19 19 19 19 19 18 18 18 17 17 16 16 16 15 14 15 15 15
42 41 39 37 35 31 28 26 25 24 22 20 20 19 19 20 21 21 20 20 20 20 19 19 19 19 18 18 17 17 17 17 17 17 17 17 17 17 17 18 18 18 18 18 18 19 19 19 19 18 18 17 17 17 16 16 16 15 14 14 14 15

ECMWFFLT2_500_spd_039.txt.gz
Wind_Speed
16 15 15 15 15 16 17 18 19 19 20 21 22 23 23 23 24 25 25 25 26 25 25 23 22 21 21 20 18 18 17 17 17 18 18 17 18 18 18 18 18 17 16 16 16 16 16 17 18 18 19 19 19 20 20 19 18 16 15 18 22 26
13 12 12 13 15 16 18 19 20 20 20 21 22 23 23 24 24 24 24 25 25 24 24 22 21 20 21 20 18 17 17 18 19 20 19 19 19 19 19 19 18 18 17 18 18 17 17 18 18 19 20 20 20 21 20 20 19 18 18 18 21 25
10 10 11 14 16 18 19 20 21 20 21 22 23 24 23 24 24 24 24 25 25 24 22 21 19 18 19 19 18 18 18 19 20 21 22 22 22 21 21 20 20 19 19 19 19 19 19 19 19 20 20 21 21 21 21 20 20 20 20 20 20 23
9 9 11 14 18 19 20 21 21 21 21 23 23 24 24 24 24 24 24 23 23 22 21 20 18 16 15 17 18 19 20 20 21 22 23 24 23 23 22 22 21 21 21 21 21 21 21 20 20 21 21 21 22 22 23 21 21 21 22 22 21 20
7 8 11 14 17 19 20 21 21 21 22 23 24 25 24 24 24 24 23 23 22 20 20 19 18 15 14 15 16 17 19 20 21 23 24 24 24 24 24 23 22 22 22 23 23 23 22 22 22 23 22 22 22 23 24 22 21 22 23 22 22 21
5 8 11 14 16 18 20 21 20 20 21 23 24 24 24 23 22 22 22 23 22 20 19 18 17 17 15 15 15 14 15 18 20 22 23 24 24 24 24 22 21 21 21 22 23 24 23 23 23 24 23 23 23 23 25 23 21 22 24 24 24 23
4 7 10 13 15 18 19 20 20 20 21 22 22 23 22 22 21 20 21 22 22 20 19 18 17 18 16 15 15 14 14 15 18 20 20 21 22 22 22 20 18 19 20 21 22 23 23 23 24 24 24 25 24 24 25 25 22 23 24 25 26 26
5 8 11 13 15 17 19 20 21 20 20 21 21 21 21 22 21 19 20 21 21 20 19 17 17 18 17 15 15 15 15 15 17 17 18 19 18 18 18 17 17 18 19 20 20 21 22 22 23 24 24 26 26 25 26 26 24 23 24 25 27 28
8 10 13 14 16 17 18 20 20 20 19 20 20 20 20 20 19 18 17 19 19 18 17 16 16 17 17 15 14 15 16 16 15 15 17 18 16 16 17 16 17 18 18 18 19 20 21 22 23 24 25 26 27 27 27 26 25 24 24 25 27 29
10 12 14 15 17 17 18 19 19 19 19 19 19 19 19 18 18 17 15 15 16 16 15 15 15 16 16 15 14 15 15 16 15 15 16 16 16 16 16 17 18 19 19 19 19 19 21 22 22 24 26 26 26 26 26 27 26 24 24 25 27 29
12 14 16 16 17 18 18 18 18 18 18 18 17 18 17 17 17 15 14 13 13 13 13 13 13 13 14 13 13 13 14 15 15 15 15 15 15 15 15 18 19 20 20 21 21 20 19 20 22 24 26 27 27 26 26 27 27 25 24 25 27 29
13 15 17 17 19 19 19 18 17 17 16 15 15 15 16 16 15 14 13 13 12 12 12 12 12 12 12 12 11 11 12 13 14 14 14 14 14 15 16 18 20 21 21 23 23 21 20 19 20 22 25 28 27 26 26 27 27 26 25 26 27 29
16 17 17 18 19 20 21 19 18 16 15 14 14 14 14 14 14 13 12 12 12 11 12 11 11 11 12 12 11 10 11 13 14 14 14 14 15 16 17 18 18 20 21 23 22 20 19 18 17 20 22 24 25 25 26 26 27 27 27 27 28 29
19 19 19 19 20 21 21 20 19 17 15 14 13 14 14 14 13 13 12 11 11 11 11 11 11 11 12 13 12 11 12 13 14 14 14 14 15 15 16 17 16 16 16 18 17 17 17 16 16 16 17 20 22 23 25 26 27 29 28 28 28 30
23 22 21 21 21 21 21 21 20 18 17 15 13 13 13 13 13 13 12 11 11 10 11 11 12 13 14 15 14 13 13 14 14 13 13 14 13 14 15 16 15 15 14 15 17 17 17 15 15 15 16 19 20 22 24 25 27 29 28 28 29 30
24 23 22 22 21 21 21 21 20 19 18 17 14 14 13 14 13 13 13 12 11 11 12 13 13 14 15 15 15 15 15 15 14 14 13 13 13 13 13 15 15 15 15 16 18 19 17 15 16 16 16 18 19 21 22 23 26 28 28 28 30 31
24 23 23 22 21 21 21 20 19 18 18 18 17 15 15 15 14 14 14 12 12 12 12 13 13 14 15 16 16 16 16 16 16 15 14 13 13 13 13 13 14 14 15 16 18 19 17 16 16 17 18 17 17 19 20 22 24 27 28 28 30 31
23 23 23 22 21 20 20 19 19 19 18 18 18 17 16 16 15 16 15 14 13 13 13 13 14 15 16 17 17 17 17 17 18 17 16 15 14 13 13 13 13 14 15 16 18 18 17 16 16 17 18 18 17 18 19 21 22 26 29 29 28 29
23 22 21 20 20 19 19 19 19 19 19 18 18 18 18 17 17 16 16 16 15 15 14 14 14 15 16 17 18 18 18 18 18 18 17 16 16 16 15 14 14 15 16 17 18 17 17 17 17 17 18 17 17 19 20 21 21 22 26 30 29 28
22 21 19 18 18 18 18 18 19 20 20 19 19 19 18 18 18 17 17 16 16 16 16 15 15 16 17 17 18 19 19 19 18 18 17 16 17 17 16 16 16 17 18 19 19 18 18 18 18 18 18 17 17 19 21 21 21 19 19 24 26 27
20 19 18 17 17 17 17 17 18 19 19 20 20 20 19 19 18 18 17 17 16 17 16 16 17 17 17 17 18 19 18 18 18 18 17 16 17 17 17 17 18 19 19 19 20 19 20 20 19 19 19 18 17 18 20 21 22 19 17 17 20 23
18 17 18 17 17 17 16 16 17 18 19 19 20 21 20 19 19 18 18 18 17 17 17 17 17 17 18 17 18 18 18 18 18 18 18 17 17 17 17 18 19 19 20 20 21 20 20 20 20 20 20 19 18 18 19 20 21 20 19 18 19 20
17 17 18 18 17 16 16 16 16 17 17 18 19 20 21 20 20 19 19 18 18 18 18 18 18 18 18 18 18 18 18 18 18 18 18 18 18 18 18 19 19 20 20 21 21 22 22 22 21 20 20 20 19 19 19 19 20 20 20 20 21 21
16 17 18 18 17 16 15 15 16 16 17 17 18 19 20 20 20 19 19 19 19 19 19 19 19 19 18 18 18 18 18 18 18 18 18 18 18 18 19 19 20 21 21 21 22 22 22 22 21 20 19 19 19 19 17 17 18 20 21 22 21 21
17 17 18 18 17 16 15 15 16 17 17 17 18 18 18 19 20 20 19 19 19 19 20 20 19 19 18 18 18 18 18 18 18 18 18 18 18 18 19 20 20 21 22 22 22 22 22 21 20 20 19 18 18 18 17 17 18 20 21 22 22 21
19 18 19 18 17 16 15 15 16 17 17 18 17 18 18 18 19 19 19 19 19 19 19 19 19 18 18 17 17 17 17 17 17 17 18 18 19 19 19 20 21 21 22 22 22 22 21 21 20 20 19 19 18 19 19 18 19 20 21 21 21 21
20 19 19 18 18 17 15 15 16 17 17 17 17 17 18 18 18 18 19 19 19 19 19 19 19 18 18 17 17 17 16 16 16 17 17 18 19 19 19 20 20 21 21 21 21 21 21 20 20 19 19 19 19 20 20 19 20 20 20 20 20 19
20 20 20 20 20 18 16 16 16 17 17 17 17 18 18 18 18 19 19 20 19 19 19 19 18 18 17 17 17 17 16 16 16 16 17 17 18 18 18 18 19 19 20 21 21 21 20 19 19 19 19 19 20 20 20 20 20 21 21 21 20 19
20 19 20 20 21 20 19 17 17 17 18 18 18 18 19 19 19 20 20 20 19 19 19 18 18 18 17 17 16 16 16 16 16 16 16 16 17 17 17 17 17 18 19 19 20 20 20 19 18 18 18 19 19 20 21 21 21 22 22 22 21 21
20 19 20 21 22 23 21 19 18 17 18 19 20 19 20 20 20 21 21 20 19 19 18 18 17 17 17 16 16 16 16 16 16 16 15 15 15 15 15 15 15 16 17 17 18 19 19 18 17 17 18 19 19 20 20 21 21 21 21 22 23 23
21 21 21 22 24 24 23 22 20 18 18 20 21 21 21 20 20 20 20 20 19 18 18 17 17 16 16 15 14 14 14 14 15 15 14 14 14 14 14 14 14 15 15 16 16 17 18 18 17 16 17 18 19 19 20 20 20 20 20 20 21 22
25 23 23 23 25 25 26 25 22 20 19 20 21 21 21 21 20 20 20 19 19 18 18 17 17 16 15 15 14 13 13 12 13 13 13 13 13 13 13 13 14 14 14 15 15 15 16 16 16 16 15 16 18 19 19 20 19 19 19 19 19 20
24 23 24 25 25 27 28 27 25 23 20 21 22 22 21 21 20 20 19 19 18 17 17 17 17 17 16 15 14 13 12 12 12 12 12 13 13 13 13 13 13 13 14 14 14 15 15 15 15 15 14 14 15 17 18 19 19 18 18 18 18 18
26 23 26 26 26 27 28 29 28 25 23 22 22 22 21 21 20 20 19 19 18 17 16 17 17 16 16 15 14 14 13 12 12 12 12 12 12 12 13 13 13 13 13 14 14 14 14 14 14 14 13 13 13 15 17 17 17 17 17 16 17 17
29 25 25 26 26 28 30 30 29 27 25 24 23 22 22 22 20 19 19 18 18 17 16 16 17 16 16 16 15 14 14 14 13 13 13 13 13 12 12 13 13 13 13 13 14 14 14 14 14 13 13 12 12 13 14 16 16 15 15 15 15 15
29 26 26 26 28 30 31 32 31 30 27 26 24 23 23 22 20 19 19 18 17 17 17 17 17 17 17 16 16 16 16 16 15 15 15 14 14 14 14 13 13 13 13 13 13 13 13 13 13 13 13 12 12 12 13 14 14 14 13 13 13 14
28 28 28 28 31 31 31 32 32 31 28 26 25 24 23 23 21 19 19 18 17 17 17 18 18 17 17 17 17 17 18 17 17 17 16 16 16 16 16 15 15 14 14 13 13 13 13 13 13 13 12 12 12 12 12 13 14 14 13 12 12 12

ECMWFFLT2_500_spd_042.txt.gz
Wind_Speed
31 31 30 27 25 21 18 15 13 13 14 16 17 19 20 20 21 22 22 23 23 23 22 22 22 21 22 22 22 22 22 22 21 19 18 18 18 17 18 19 19 20 19 19 18 18 19 19 19 20 21 21 20 19 19 19 19 19 19 20 21 24
33 32 30 28 25 22 18 14 12 13 14 16 18 20 21 22 22 22 22 23 23 23 23 22 22 21 21 20 21 22 23 23 22 20 19 19 18 18 18 19 19 19 20 20 19 20 20 19 19 19 20 21 20 20 20 20 21 21 20 20 20 22
32 31 29 27 24 20 15 12 11 13 14 17 19 20 21 22 22 22 22 22 22 23 23 23 22 22 21 20 20 21 22 22 22 21 20 19 18 18 18 19 19 20 20 20 20 20 21 21 21 20 21 21 21 21 21 21 22 22 22 22 21 21
26 29 27 25 21 16 11 10 12 13 15 17 19 20 21 22 22 22 21 21 22 22 22 23 22 22 21 20 20 20 20 21 21 21 21 20 19 19 20 20 20 21 21 21 21 21 21 22 22 22 22 22 22 21 21 22 22 23 23 23 23 22
22 26 24 20 16 11 9 10 12 13 15 17 18 19 21 22 22 21 21 21 20 20 20 21 21 21 20 20 20 19 18 19 21 22 23 23 22 22 22 21 21 22 22 21 22 22 23 23 23 23 23 23 23 22 21 22 23 23 23 24 24 24
20 24 21 18 15 11 10 10 12 13 15 16 17 18 20 20 20 20 19 19 19 18 19 19 20 21 20 20 20 20 19 20 21 22 24 23 23 23 23 22 22 22 22 22 23 23 23 24 24 24 25 25 24 23 21 22 24 24 24 25 25 25
14 18 16 15 13 10 9 10 12 12 13 15 16 18 19 19 19 19 18 18 18 18 18 18 19 20 20 20 20 21 22 22 21 20 21 21 23 23 22 21 22 22 22 23 23 23 23 23 24 25 26 26 26 25 22 21 23 24 25 25 26 27
5 8 8 9 9 9 9 10 11 12 13 15 16 16 17 18 18 18 18 18 18 17 17 18 18 19 19 19 21 22 23 22 20 18 18 19 20 20 20 20 21 21 22 22 22 22 22 21 22 23 24 25 26 25 23 22 23 25 26 26 26 27
7 10 7 7 8 9 8 9 10 11 12 14 15 15 16 17 17 17 17 17 17 17 16 16 17 17 17 19 21 22 22 21 20 18 18 18 17 18 18 18 20 21 21 21 21 21 21 20 20 21 23 24 24 24 23 23 23 25 26 27 27 28
7 8 5 4 6 7 8 9 10 11 12 13 14 14 14 15 15 15 16 16 16 16 15 14 15 16 16 18 19 20 21 20 20 20 19 16 15 16 17 17 18 19 20 19 19 19 20 20 20 21 22 22 23 23 23 23 24 25 27 27 27 28
4 7 6 4 5 7 8 9 10 11 12 12 12 13 13 13 14 14 14 15 15 14 13 13 13 15 16 16 17 19 19 19 19 19 17 16 15 16 17 16 16 17 18 18 19 19 19 19 20 20 21 21 23 24 24 23 24 25 27 28 27 27
4 5 5 6 7 8 9 10 11 11 11 11 11 12 13 13 13 13 13 13 13 13 12 11 12 13 13 14 15 16 17 17 17 16 15 15 15 16 16 16 15 16 18 18 19 19 19 19 19 20 21 21 22 23 23 24 24 25 26 28 28 28
6 6 5 6 8 9 10 11 12 12 12 11 11 12 12 13 13 13 13 12 12 11 11 11 11 10 11 13 14 15 15 14 13 13 14 14 14 14 15 15 16 17 18 19 19 20 20 20 19 20 22 21 21 21 21 23 24 24 25 27 28 28
8 8 8 9 10 11 11 11 12 12 12 12 11 12 13 13 13 13 12 12 11 11 11 11 10 10 11 13 15 15 14 13 12 12 12 13 13 14 14 15 16 18 19 19 18 18 18 18 18 20 21 21 21 21 20 21 23 24 25 26 28 30
9 11 11 12 12 12 11 11 11 11 11 11 12 12 13 13 13 13 12 11 11 10 11 11 11 11 12 14 15 15 14 12 12 12 12 12 12 13 14 14 16 17 17 17 16 15 14 14 16 18 19 19 20 20 18 19 22 23 25 26 28 30
11 13 14 14 14 13 12 12 11 11 10 10 11 12 12 12 12 12 11 11 11 11 11 12 12 12 13 14 14 14 14 13 13 12 12 12 12 12 13 14 15 16 16 16 16 16 15 14 16 17 17 18 18 18 17 17 19 22 23 26 28 29
13 14 15 15 14 13 13 12 12 11 10 10 10 11 11 11 11 11 10 10 10 10 11 12 12 13 14 14 14 14 14 14 14 13 13 13 12 12 12 14 14 15 16 16 15 16 16 16 17 17 17 17 17 17 17 17 18 20 22 25 27 28
13 15 15 15 14 13 13 13 13 12 11 9 9 9 10 10 10 10 10 10 10 10 11 12 13 14 15 15 14 14 15 15 15 14 14 13 13 13 13 14 15 15 16 15 15 15 16 17 17 16 17 17 16 17 18 19 19 20 21 22 24 27
14 15 16 15 13 13 13 13 13 13 12 11 10 10 9 9 10 10 10 10 10 10 11 12 13 14 14 15 15 15 16 16 16 16 15 15 14 14 14 15 16 17 17 16 15 16 17 17 16 16 16 16 16 16 17 19 20 20 20 21 22 24
14 15 15 14 13 13 13 13 14 14 13 12 11 11 10 10 10 10 10 10 11 10 11 11 12 13 14 15 16 16 17 17 17 17 17 16 15 15 15 15 17 18 18 17 16 17 17 17 17 17 17 16 16 15 16 18 19 20 20 21 21 21
15 16 16 15 14 14 14 14 14 14 13 12 11 11 11 11 11 10 11 11 11 11 11 11 11 12 13 15 16 17 17 17 18 18 18 17 17 16 16 16 17 18 19 18 18 18 18 18 18 18 18 17 16 16 17 18 18 18 19 20 20 19
16 17 17 16 16 15 14 14 14 13 12 11 11 11 11 11 11 11 11 11 11 10 11 11 11 12 13 14 15 16 17 17 17 17 17 17 17 17 17 17 18 19 20 19 19 18 18 19 19 19 18 18 18 18 18 19 18 18 18 18 18 18
17 17 18 18 16 15 13 13 13 12 12 12 11 11 11 11 11 11 11 11 11 11 11 11 11 12 12 13 14 15 16 16 16 16 17 17 18 18 18 18 19 20 20 20 19 19 19 19 20 20 19 19 19 19 19 20 20 19 19 18 17 18
17 18 19 18 17 15 13 11 10 11 12 12 12 11 11 11 11 12 11 11 11 11 11 12 12 12 13 13 13 14 15 15 15 15 16 17 18 18 18 19 19 19 20 20 20 19 19 20 20 20 20 20 20 19 20 21 20 19 19 18 17 17
18 19 19 19 18 16 13 10 9 10 11 12 12 11 11 11 12 12 12 12 11 12 12 12 13 13 13 13 13 13 14 14 14 15 15 16 16 17 17 18 19 19 20 20 20 20 20 20 20 20 20 19 19 20 20 21 20 20 19 18 18 18
19 19 19 20 20 19 16 12 10 10 10 12 12 12 11 11 11 11 12 12 12 12 13 13 13 13 14 14 14 13 13 14 14 14 14 15 15 16 17 18 18 19 20 20 21 21 21 21 20 20 20 19 19 19 20 20 21 20 20 20 19 19
21 20 20 22 24 24 20 15 11 10 10 11 12 12 12 11 11 11 11 12 12 12 13 13 14 14 14 14 14 14 14 14 14 14 15 15 15 16 17 18 18 19 20 20 21 21 21 20 20 20 19 19 19 19 19 20 21 21 21 21 21 20
22 23 23 24 25 26 24 19 14 11 11 11 12 13 13 12 12 12 13 13 13 13 12 13 13 14 14 14 14 15 14 14 15 15 15 15 16 16 17 18 18 19 20 20 20 20 20 20 20 19 19 19 19 19 20 21 22 22 22 22 21 21
21 23 24 22 22 24 25 22 18 14 12 12 12 13 14 14 14 14 15 15 15 14 13 13 13 13 14 14 14 15 15 15 15 15 15 15 16 16 17 17 18 19 19 19 20 20 20 19 19 19 19 19 18 19 20 21 22 22 22 22 22 22
21 22 20 19 20 23 25 25 22 18 15 13 13 14 15 16 16 16 17 17 16 15 14 13 13 13 13 13 14 14 14 15 15 15 15 15 15 16 17 17 18 18 19 19 19 19 19 19 19 18 18 18 18 18 19 20 21 22 23 23 23 23
22 22 21 20 21 23 25 26 25 22 18 16 15 16 16 16 17 18 18 18 17 16 15 14 13 13 13 13 13 14 14 14 14 15 15 15 15 16 16 17 17 17 18 18 18 18 18 18 17 17 17 17 17 18 19 19 20 21 22 22 22 22
19 21 23 24 25 28 28 28 29 26 21 18 17 17 17 17 18 18 19 19 18 17 16 15 14 13 12 12 13 13 14 14 14 15 15 15 16 16 16 16 17 17 17 17 17 17 17 16 16 16 16 16 16 17 18 19 19 20 21 21 21 21
19 21 24 26 28 31 32 32 30 27 22 19 18 18 18 18 19 19 19 19 18 18 17 16 15 13 13 12 12 13 13 13 14 14 14 15 15 15 15 16 16 16 16 16 16 16 16 15 15 14 14 14 15 16 16 17 18 19 19 20 20 20
22 23 26 27 27 30 33 32 28 25 22 21 20 20 20 20 20 20 19 19 19 19 18 17 16 14 13 12 12 13 13 13 13 13 13 14 14 14 14 14 15 15 15 15 15 15 15 15 14 14 13 13 14 14 15 16 17 18 18 18 18 19
23 26 29 28 24 26 29 31 28 25 24 23 22 21 22 22 22 21 20 19 19 19 18 18 17 15 14 13 13 13 13 13 13 13 13 13 13 13 13 13 13 13 13 13 14 14 14 14 13 13 13 12 13 13 14 15 16 16 16 16 17 17
21 25 29 28 25 25 27 29 28 25 23 23 22 22 22 23 23 21 20 19 19 19 18 17 17 16 16 15 14 14 14 14 14 14 14 14 14 14 14 14 13 12 12 12 12 12 12 13 13 12 12 12 12 12 13 14 15 15 14 14 14 15
21 22 25 27 28 29 27 27 25 24 23 22 22 21 21 23 22 20 18 18 19 19 18 17 16 16 17 16 16 16 15 15 15 15 15 15 15 15 15 15 15 14 13 12 12 11 11 11 11 12 11 11 11 12 12 13 13 14 13 13 13 13

ECMWFFLT2_500_spd_045.txt.gz
Wind_Speed
21 24 28 29 28 29 29 28 27 25 24 22 20 18 17 18 17 18 19 19 21 21 22 23 23 23 23 23 23 22 20 19 18 18 18 19 19 19 19 20 19 20 21 21 21 20 19 18 18 18 19 19 20 21 21 20 19 19 19 18 18 19
21 22 26 29 28 27 27 27 26 25 23 21 19 18 18 18 18 18 19 20 21 22 22 22 22 22 22 23 23 22 21 19 18 18 19 19 19 19 20 20 20 21 22 22 22 22 21 20 19 18 18 18 20 22 22 22 21 20 20 19 19 20
21 20 22 24 26 24 24 26 25 24 22 21 20 19 19 19 19 19 20 21 22 22 22 21 22 22 22 22 22 22 20 19 18 18 19 20 20 20 20 21 21 22 22 23 24 23 23 22 21 20 19 18 20 22 23 23 22 21 21 20 20 20
18 15 15 18 22 23 24 26 24 23 21 21 21 20 20 19 19 20 20 21 22 22 22 21 21 22 21 21 22 21 20 19 19 19 20 21 21 21 21 22 23 23 23 24 25 24 24 23 23 22 20 19 20 22 24 24 23 22 22 21 21 22
16 12 12 15 19 24 28 26 23 21 21 21 21 20 19 18 18 19 20 20 21 21 21 21 21 20 20 20 21 21 20 20 19 18 19 20 21 21 22 22 23 24 24 24 25 25 25 24 24 23 22 21 21 23 24 25 25 24 23 22 22 23
16 10 9 15 19 24 28 25 22 22 22 21 19 17 16 16 17 18 19 20 20 20 20 20 19 19 20 21 21 21 21 20 19 19 19 20 21 21 22 23 24 24 24 25 25 26 26 25 25 24 23 22 21 23 24 26 26 26 25 24 23 24
16 8 4 10 16 19 21 21 22 22 20 18 15 15 15 15 16 17 18 19 19 19 19 19 19 19 20 21 21 21 21 21 21 20 19 19 20 21 22 24 25 25 24 25 25 25 26 26 25 25 24 23 22 23 24 25 27 27 26 25 25 25
10 5 4 7 11 14 17 19 20 18 16 15 14 14 15 16 17 17 18 19 19 19 19 19 19 19 20 21 21 21 22 22 21 20 20 19 19 20 20 22 23 24 24 24 24 24 25 25 25 25 25 24 23 23 24 25 26 27 27 26 26 27
8 8 8 8 10 14 16 17 17 16 16 15 14 14 15 15 16 17 18 19 19 18 18 18 19 19 19 20 21 22 22 21 21 20 19 18 18 17 17 18 20 22 23 23 23 23 23 23 24 23 23 23 22 22 23 25 26 27 27 27 27 27
13 11 10 8 9 12 13 14 15 15 15 14 14 14 14 14 15 16 17 17 17 17 17 17 17 18 18 19 20 21 21 20 19 19 19 17 16 16 15 16 18 19 20 21 22 23 22 21 21 21 21 21 20 20 22 24 26 27 28 28 28 27
13 10 9 8 8 10 12 13 14 14 14 13 13 13 14 14 14 15 16 16 16 16 16 17 17 16 16 17 18 19 19 18 18 18 18 17 16 16 16 16 16 17 17 18 19 21 21 20 19 19 20 20 18 18 19 21 24 26 27 29 29 28
11 8 8 7 8 10 12 13 14 14 13 13 13 13 14 14 15 15 16 16 15 15 17 17 15 14 15 16 16 17 17 17 17 17 17 17 17 16 16 15 16 16 16 16 17 19 19 18 19 19 20 19 18 18 18 19 22 24 26 28 30 30
14 12 9 7 7 9 10 12 13 13 13 13 14 14 15 15 16 16 16 16 15 15 16 15 13 13 15 15 14 14 14 15 16 16 16 15 15 15 15 15 16 16 16 16 16 17 17 18 20 21 21 20 19 19 18 18 20 23 25 27 30 31
19 16 12 8 7 8 9 11 11 11 12 12 13 15 15 16 16 16 17 16 15 15 15 14 12 13 14 13 12 12 13 14 14 14 14 13 13 13 14 14 15 15 16 16 16 17 17 17 20 22 22 21 20 18 18 18 18 20 23 25 28 31
22 19 13 10 8 8 9 10 10 11 11 12 13 15 15 16 16 16 17 17 16 14 14 14 13 12 12 12 11 12 13 14 14 14 13 13 12 12 12 13 15 16 16 16 16 17 17 17 17 19 19 18 17 16 16 17 17 18 20 23 26 29
23 19 14 10 8 8 9 9 10 11 11 12 13 14 15 16 16 16 17 18 17 15 14 14 13 13 13 13 12 13 14 15 15 15 14 14 13 12 12 14 16 17 17 16 16 17 17 17 17 16 15 15 15 15 15 15 15 16 18 21 24 26
19 15 10 7 6 6 7 9 10 11 12 13 12 13 14 14 15 16 16 17 17 16 15 15 14 14 15 15 14 14 15 16 16 16 15 15 14 13 14 15 16 17 17 17 17 17 16 17 17 17 16 16 17 16 15 15 15 15 16 19 22 24
14 11 6 3 3 5 8 9 11 12 12 13 12 12 12 13 14 14 15 15 16 16 16 16 15 16 16 15 15 15 16 17 17 17 16 16 15 15 15 16 17 17 18 17 17 17 16 17 17 17 17 17 18 17 16 16 16 16 17 18 20 22
14 11 4 2 4 6 9 11 12 12 12 12 12 12 12 12 12 13 14 15 16 16 16 16 16 16 16 16 16 16 16 17 17 17 17 17 16 16 16 17 17 18 18 18 17 18 17 17 17 17 18 18 19 18 17 17 17 18 18 19 20 21
9 9 6 6 7 8 10 11 12 12 12 12 12 13 12 12 12 12 13 14 15 15 15 16 16 17 17 17 17 17 17 17 17 18 18 18 18 18 18 18 19 19 19 19 19 19 19 18 17 18 18 19 19 19 18 18 18 18 19 20 21 21
7 10 9 8 7 9 11 12 12 12 13 13 12 12 12 12 11 11 12 13 14 15 15 15 15 16 17 17 17 17 17 17 17 18 18 19 19 19 20 20 20 21 20 20 20 20 20 20 19 20 19 19 19 20 19 19 19 20 19 20 22 22
9 11 10 8 8 10 11 13 13 13 14 14 13 12 12 12 11 11 11 12 12 13 14 14 15 15 16 16 17 17 17 17 17 18 19 20 21 21 21 21 21 21 21 21 21 21 21 21 21 21 20 19 20 21 21 21 21 21 20 20 21 22
11 12 10 9 9 10 12 14 14 14 15 14 13 12 12 11 11 10 11 11 12 12 13 14 14 15 15 16 16 16 16 17 17 18 19 20 21 21 21 21 21 22 22 21 21 21 21 22 22 22 21 21 21 21 22 22 22 22 21 21 21 22
13 13 12 10 10 11 13 14 15 15 16 15 14 12 12 12 11 11 11 11 11 12 12 13 14 14 15 16 16 16 16 16 17 18 19 19 20 21 21 21 21 22 22 22 22 22 21 22 22 22 22 22 21 22 23 23 23 23 22 22 22 22
15 15 13 12 12 12 14 14 14 14 15 15 14 13 13 12 12 12 12 11 11 11 11 12 13 14 15 16 16 16 16 17 17 18 18 18 19 20 20 21 22 22 22 23 23 22 22 22 22 22 22 22 22 23 23 24 24 24 24 24 23 22
18 17 15 15 15 15 16 16 15 13 14 15 15 15 14 14 14 13 13 12 11 11 11 11 11 12 13 15 16 17 17 17 17 17 18 18 19 19 20 21 22 22 23 23 23 23 23 22 23 23 23 23 23 23 24 24 25 25 25 24 24 22
19 18 17 17 17 17 17 18 17 14 13 15 16 16 16 16 15 14 14 13 12 11 10 10 10 10 11 13 14 16 16 16 16 17 17 18 19 19 20 20 21 22 23 23 24 23 23 23 23 23 23 23 23 23 24 24 25 25 25 25 24 23
18 17 17 17 18 17 17 17 16 13 12 15 17 17 17 17 16 15 14 13 12 11 11 10 10 10 10 11 12 14 15 15 15 16 16 17 18 19 19 20 20 21 22 22 23 23 24 23 23 23 23 23 23 23 23 24 24 25 25 25 25 24
16 17 18 18 18 17 16 15 14 12 12 14 16 17 18 18 18 16 14 13 12 12 11 11 10 10 10 11 11 12 13 14 15 15 16 16 17 18 19 19 20 20 21 22 22 23 23 23 23 23 23 23 23 23 23 23 24 24 25 25 25 25
17 18 19 19 18 16 15 14 14 13 13 14 15 16 18 19 19 18 16 14 13 12 11 11 11 11 11 11 11 12 12 13 14 15 16 16 17 18 19 19 20 20 21 21 22 22 23 23 23 23 23 23 23 22 22 23 23 24 24 24 25 25
17 18 18 18 17 16 16 16 17 17 17 17 16 17 19 19 19 19 17 15 15 14 13 12 12 11 11 11 12 12 12 12 13 14 15 16 17 17 18 19 20 20 21 22 22 22 22 22 23 22 22 22 22 22 21 22 22 23 23 24 24 25
18 19 18 17 17 17 18 19 20 21 21 21 20 19 19 19 19 19 18 17 17 16 15 14 13 12 12 12 13 13 13 12 12 13 13 14 15 16 17 18 19 20 21 21 22 22 22 22 22 22 22 21 21 21 20 21 22 23 23 23 24 24
19 21 20 18 18 19 21 22 23 22 22 21 19 17 16 17 19 18 18 18 18 18 17 16 15 14 13 13 14 14 14 13 13 12 12 12 13 14 15 16 17 18 19 20 20 21 21 21 22 22 21 21 21 20 20 20 21 22 23 23 23 23
20 20 20 20 20 21 23 24 23 22 22 21 18 17 17 17 18 18 18 18 19 19 18 18 17 16 15 15 15 15 15 14 13 12 12 12 12 12 13 14 15 15 16 17 18 19 19 19 20 20 20 20 19 19 19 19 20 21 21 22 22 22
19 20 21 22 24 24 24 23 21 21 22 21 20 19 18 17 17 18 18 18 18 19 19 18 18 17 17 16 16 16 15 14 13 12 11 11 11 11 11 12 12 13 14 15 16 17 17 18 18 18 18 18 18 17 18 18 18 19 20 20 20 20
20 23 24 24 24 24 22 20 20 22 24 25 22 19 17 18 17 18 18 18 18 19 19 19 18 17 17 17 17 16 15 14 13 12 11 11 11 11 11 11 11 12 13 14 14 15 16 16 16 17 17 17 17 17 17 17 17 18 18 19 19 18
22 24 24 21 20 20 18 17 18 22 24 23 21 18 18 18 17 17 18 18 17 18 19 19 19 18 17 17 17 16 16 15 14 13 12 12 11 11 11 11 11 11 12 13 13 14 15 15 15 16 16 16 16 16 16 16 17 17 17 17 18 17